Wetterdaten: Mittwoch, 02.02.2022
Datum Zeit Temp. Aussen Temp. o. S. Temp +5cm Feuchte Auss Luftdruck Regen Sonnenschein Regendauer Solar Windben Empfang
02.02.2022 00:00 8,1 C 7,2 C 5,0 C 91 % 1014,6 hPa 0,0 l/m 0 min 0 min 0 W/m 16,1 km/h (3 Bft) 97,87 %
02.02.2022 00:02 8,1 C 7,2 C 5,0 C 91 % 1014,6 hPa 0,0 l/m 0 min 0 min 0 W/m 22,5 km/h (4 Bft) 97,37 %
02.02.2022 00:04 8,1 C 7,2 C 5,0 C 91 % 1014,6 hPa 0,0 l/m 0 min 0 min 0 W/m 19,3 km/h (3 Bft) 97,83 %
02.02.2022 00:08 8,1 C 7,2 C 5,0 C 91 % 1014,6 hPa 0,0 l/m 0 min 0 min 0 W/m 16,1 km/h (3 Bft) 95,74 %
02.02.2022 00:10 8,1 C 7,2 C 5,0 C 91 % 1014,7 hPa 0,0 l/m 0 min 0 min 0 W/m 19,3 km/h (3 Bft) 97,87 %
02.02.2022 00:12 8,1 C 7,2 C 5,0 C 91 % 1014,7 hPa 0,0 l/m 0 min 0 min 0 W/m 25,7 km/h (4 Bft) 97,87 %
02.02.2022 00:14 8,1 C 7,2 C 5,0 C 91 % 1014,7 hPa 0,0 l/m 0 min 0 min 0 W/m 19,3 km/h (3 Bft) 97,87 %
02.02.2022 00:16 8,1 C 7,2 C 5,0 C 91 % 1014,7 hPa 0,0 l/m 0 min 0 min 0 W/m 19,3 km/h (3 Bft) 97,83 %
02.02.2022 00:18 8,1 C 7,2 C 5,0 C 91 % 1014,6 hPa 0,0 l/m 0 min 0 min 0 W/m 16,1 km/h (3 Bft) 100,00 %
02.02.2022 00:20 8,1 C 7,2 C 5,0 C 91 % 1014,7 hPa 0,0 l/m 0 min 0 min 0 W/m 16,1 km/h (3 Bft) 100,00 %
02.02.2022 00:22 8,1 C 7,2 C 5,0 C 91 % 1014,8 hPa 0,0 l/m 0 min 0 min 0 W/m 16,1 km/h (3 Bft) 100,00 %
02.02.2022 00:24 8,1 C 7,2 C 5,0 C 91 % 1014,9 hPa 0,0 l/m 0 min 0 min 0 W/m 22,5 km/h (4 Bft) 100,00 %
02.02.2022 00:26 8,1 C 7,2 C 5,0 C 91 % 1014,8 hPa 0,0 l/m 0 min 0 min 0 W/m 19,3 km/h (3 Bft) 97,83 %
02.02.2022 00:28 8,1 C 7,2 C 5,0 C 91 % 1014,7 hPa 0,0 l/m 0 min 0 min 0 W/m 19,3 km/h (3 Bft) 100,00 %
02.02.2022 00:30 8,1 C 7,2 C 5,0 C 90 % 1014,8 hPa 0,0 l/m 0 min 0 min 0 W/m 22,5 km/h (4 Bft) 97,87 %
02.02.2022 00:32 8,1 C 7,2 C 5,0 C 90 % 1014,7 hPa 0,0 l/m 0 min 0 min 0 W/m 16,1 km/h (3 Bft) 100,00 %
02.02.2022 00:34 8,1 C 7,2 C 5,0 C 90 % 1014,9 hPa 0,0 l/m 0 min 0 min 0 W/m 16,1 km/h (3 Bft) 100,00 %
02.02.2022 00:36 8,1 C 7,2 C 5,0 C 90 % 1014,7 hPa 0,0 l/m 0 min 0 min 0 W/m 19,3 km/h (3 Bft) 100,00 %
02.02.2022 00:38 8,1 C 7,8 C 5,0 C 90 % 1014,8 hPa 0,0 l/m 0 min 0 min 0 W/m 25,7 km/h (4 Bft) 97,87 %
02.02.2022 00:40 8,1 C 7,2 C 5,0 C 90 % 1014,9 hPa 0,0 l/m 0 min 0 min 0 W/m 19,3 km/h (3 Bft) 100,00 %
02.02.2022 00:42 8,1 C 7,8 C 5,0 C 90 % 1014,8 hPa 0,0 l/m 0 min 0 min 0 W/m 25,7 km/h (4 Bft) 100,00 %
02.02.2022 00:44 8,2 C 7,8 C 5,0 C 90 % 1014,8 hPa 0,0 l/m 0 min 0 min 0 W/m 22,5 km/h (4 Bft) 100,00 %
02.02.2022 00:46 8,2 C 7,8 C 5,0 C 90 % 1014,8 hPa 0,0 l/m 0 min 0 min 0 W/m 22,5 km/h (4 Bft) 100,00 %
02.02.2022 00:48 8,2 C 7,8 C 5,0 C 89 % 1014,9 hPa 0,0 l/m 0 min 0 min 0 W/m 25,7 km/h (4 Bft) 97,87 %
02.02.2022 00:50 8,2 C 7,8 C 5,0 C 89 % 1014,9 hPa 0,0 l/m 0 min 0 min 0 W/m 19,3 km/h (3 Bft) 97,87 %
02.02.2022 00:52 8,2 C 7,8 C 5,0 C 89 % 1015,0 hPa 0,0 l/m 0 min 0 min 0 W/m 22,5 km/h (4 Bft) 97,83 %
02.02.2022 00:54 8,2 C 7,8 C 5,0 C 89 % 1014,8 hPa 0,0 l/m 0 min 0 min 0 W/m 35,4 km/h (5 Bft) 97,87 %
02.02.2022 00:56 8,2 C 7,8 C 5,0 C 88 % 1014,8 hPa 0,0 l/m 0 min 0 min 0 W/m 22,5 km/h (4 Bft) 97,87 %
02.02.2022 00:58 8,2 C 7,8 C 5,0 C 88 % 1014,9 hPa 0,0 l/m 0 min 0 min 0 W/m 16,1 km/h (3 Bft) 97,87 %
02.02.2022 01:00 8,2 C 7,2 C 5,0 C 88 % 1014,8 hPa 0,0 l/m 0 min 0 min 0 W/m 25,7 km/h (4 Bft) 97,87 %
02.02.2022 01:02 8,2 C 7,2 C 5,0 C 88 % 1014,9 hPa 0,0 l/m 0 min 0 min 0 W/m 22,5 km/h (4 Bft) 95,74 %
02.02.2022 01:04 8,2 C 7,2 C 5,0 C 88 % 1014,9 hPa 0,0 l/m 0 min 0 min 0 W/m 19,3 km/h (3 Bft) 95,74 %
02.02.2022 01:06 8,1 C 7,2 C 5,0 C 88 % 1014,9 hPa 0,0 l/m 0 min 0 min 0 W/m 29,0 km/h (5 Bft) 97,87 %
02.02.2022 01:08 8,1 C 7,2 C 5,0 C 88 % 1014,9 hPa 0,0 l/m 0 min 0 min 0 W/m 29,0 km/h (5 Bft) 97,87 %
02.02.2022 01:10 8,0 C 7,2 C 5,0 C 88 % 1015,1 hPa 0,0 l/m 0 min 0 min 0 W/m 25,7 km/h (4 Bft) 97,87 %
02.02.2022 01:12 7,9 C 7,2 C 5,0 C 88 % 1015,0 hPa 0,0 l/m 0 min 0 min 0 W/m 25,7 km/h (4 Bft) 97,87 %
02.02.2022 01:14 7,9 C 7,2 C 4,4 C 89 % 1015,1 hPa 0,0 l/m 0 min 0 min 0 W/m 16,1 km/h (3 Bft) 97,83 %
02.02.2022 01:16 7,8 C 6,7 C 4,4 C 89 % 1015,2 hPa 0,0 l/m 0 min 0 min 0 W/m 25,7 km/h (4 Bft) 97,87 %
02.02.2022 01:18 7,8 C 6,7 C 4,4 C 89 % 1015,1 hPa 0,0 l/m 0 min 0 min 0 W/m 16,1 km/h (3 Bft) 97,87 %
02.02.2022 01:20 7,8 C 6,7 C 4,4 C 89 % 1015,1 hPa 0,0 l/m 0 min 0 min 0 W/m 22,5 km/h (4 Bft) 97,87 %
02.02.2022 01:22 7,7 C 6,7 C 4,4 C 89 % 1015,2 hPa 0,0 l/m 0 min 0 min 0 W/m 19,3 km/h (3 Bft) 97,87 %
02.02.2022 01:24 7,7 C 6,7 C 4,4 C 89 % 1015,2 hPa 0,0 l/m 0 min 0 min 0 W/m 19,3 km/h (3 Bft) 97,87 %
02.02.2022 01:26 7,6 C 6,7 C 4,4 C 90 % 1015,0 hPa 0,0 l/m 0 min 0 min 0 W/m 19,3 km/h (3 Bft) 95,65 %
02.02.2022 01:28 7,6 C 6,7 C 4,4 C 90 % 1015,1 hPa 0,0 l/m 0 min 0 min 0 W/m 22,5 km/h (4 Bft) 95,74 %
02.02.2022 01:30 7,6 C 6,7 C 4,4 C 90 % 1015,1 hPa 0,0 l/m 0 min 0 min 0 W/m 12,9 km/h (3 Bft) 97,87 %
02.02.2022 01:32 7,5 C 6,7 C 4,4 C 90 % 1015,2 hPa 0,0 l/m 0 min 0 min 0 W/m 19,3 km/h (3 Bft) 97,92 %
02.02.2022 01:34 7,5 C 6,7 C 4,4 C 90 % 1015,2 hPa 0,0 l/m 0 min 0 min 0 W/m 19,3 km/h (3 Bft) 97,87 %
02.02.2022 01:36 7,4 C 6,7 C 4,4 C 90 % 1015,2 hPa 0,0 l/m 0 min 0 min 0 W/m 16,1 km/h (3 Bft) 97,83 %
02.02.2022 01:38 7,4 C 6,7 C 4,4 C 91 % 1015,3 hPa 0,0 l/m 0 min 0 min 0 W/m 16,1 km/h (3 Bft) 97,87 %
02.02.2022 01:40 7,4 C 6,7 C 4,4 C 91 % 1015,3 hPa 0,0 l/m 0 min 0 min 0 W/m 19,3 km/h (3 Bft) 100,00 %
02.02.2022 01:42 7,4 C 6,7 C 4,4 C 91 % 1015,2 hPa 0,0 l/m 0 min 0 min 0 W/m 16,1 km/h (3 Bft) 97,87 %
02.02.2022 01:44 7,4 C 6,7 C 4,4 C 91 % 1015,1 hPa 0,0 l/m 0 min 0 min 0 W/m 12,9 km/h (3 Bft) 97,87 %
02.02.2022 01:46 7,4 C 6,7 C 4,4 C 91 % 1015,3 hPa 0,0 l/m 0 min 0 min 0 W/m 22,5 km/h (4 Bft) 97,87 %
02.02.2022 01:48 7,4 C 6,7 C 4,4 C 91 % 1015,1 hPa 0,0 l/m 0 min 0 min 0 W/m 19,3 km/h (3 Bft) 97,83 %
02.02.2022 01:50 7,4 C 6,7 C 4,4 C 91 % 1015,0 hPa 0,0 l/m 0 min 0 min 0 W/m 19,3 km/h (3 Bft) 97,87 %
02.02.2022 01:52 7,4 C 6,7 C 4,4 C 91 % 1015,1 hPa 0,0 l/m 0 min 0 min 0 W/m 19,3 km/h (3 Bft) 95,74 %
02.02.2022 01:54 7,4 C 6,7 C 4,4 C 91 % 1015,2 hPa 0,0 l/m 0 min 0 min 0 W/m 16,1 km/h (3 Bft) 97,87 %
02.02.2022 01:56 7,3 C 6,7 C 4,4 C 91 % 1015,3 hPa 0,0 l/m 0 min 0 min 0 W/m 19,3 km/h (3 Bft) 93,62 %
02.02.2022 01:58 7,3 C 6,7 C 4,4 C 91 % 1015,2 hPa 0,0 l/m 0 min 0 min 0 W/m 25,7 km/h (4 Bft) 95,74 %
02.02.2022 02:00 7,3 C 6,7 C 3,9 C 91 % 1015,2 hPa 0,0 l/m 0 min 0 min 0 W/m 12,9 km/h (3 Bft) 95,65 %
02.02.2022 02:02 7,3 C 6,7 C 3,9 C 91 % 1015,4 hPa 0,0 l/m 0 min 0 min 0 W/m 16,1 km/h (3 Bft) 95,74 %
02.02.2022 02:04 7,3 C 6,7 C 3,9 C 91 % 1015,4 hPa 0,0 l/m 0 min 0 min 0 W/m 16,1 km/h (3 Bft) 95,74 %
02.02.2022 02:06 7,3 C 6,7 C 3,9 C 91 % 1015,4 hPa 0,0 l/m 0 min 0 min 0 W/m 12,9 km/h (3 Bft) 95,74 %
02.02.2022 02:08 7,3 C 6,7 C 3,9 C 91 % 1015,3 hPa 0,0 l/m 0 min 0 min 0 W/m 22,5 km/h (4 Bft) 93,62 %
02.02.2022 02:10 7,2 C 6,7 C 3,9 C 91 % 1015,3 hPa 0,0 l/m 0 min 0 min 0 W/m 16,1 km/h (3 Bft) 95,74 %
02.02.2022 02:12 7,2 C 6,7 C 3,9 C 91 % 1015,4 hPa 0,0 l/m 0 min 0 min 0 W/m 16,1 km/h (3 Bft) 95,65 %
02.02.2022 02:14 7,2 C 6,7 C 3,9 C 91 % 1015,2 hPa 0,0 l/m 0 min 0 min 0 W/m 9,7 km/h (2 Bft) 97,87 %
02.02.2022 02:16 7,2 C 6,7 C 3,9 C 91 % 1015,3 hPa 0,0 l/m 0 min 0 min 0 W/m 16,1 km/h (3 Bft) 95,74 %
02.02.2022 02:18 7,2 C 6,7 C 3,9 C 91 % 1015,2 hPa 0,0 l/m 0 min 0 min 0 W/m 16,1 km/h (3 Bft) 100,00 %
02.02.2022 02:20 7,2 C 6,1 C 3,9 C 91 % 1015,3 hPa 0,0 l/m 0 min 0 min 0 W/m 12,9 km/h (3 Bft) 97,87 %
02.02.2022 02:22 7,2 C 6,7 C 3,9 C 91 % 1015,3 hPa 0,0 l/m 0 min 0 min 0 W/m 12,9 km/h (3 Bft) 95,74 %
02.02.2022 02:24 7,2 C 6,7 C 3,9 C 91 % 1015,4 hPa 0,0 l/m 0 min 0 min 0 W/m 12,9 km/h (3 Bft) 97,83 %
02.02.2022 02:26 7,2 C 6,7 C 4,4 C 92 % 1015,3 hPa 0,0 l/m 0 min 0 min 0 W/m 16,1 km/h (3 Bft) 95,74 %
02.02.2022 02:28 7,2 C 6,7 C 4,4 C 92 % 1015,4 hPa 0,0 l/m 0 min 0 min 0 W/m 16,1 km/h (3 Bft) 97,87 %
02.02.2022 02:30 7,2 C 6,7 C 4,4 C 92 % 1015,4 hPa 0,0 l/m 0 min 0 min 0 W/m 16,1 km/h (3 Bft) 97,87 %
02.02.2022 02:32 7,2 C 6,7 C 4,4 C 92 % 1015,4 hPa 0,0 l/m 0 min 0 min 0 W/m 16,1 km/h (3 Bft) 97,96 %
02.02.2022 02:34 7,3 C 6,7 C 4,4 C 92 % 1015,4 hPa 0,0 l/m 0 min 0 min 0 W/m 19,3 km/h (3 Bft) 97,87 %
02.02.2022 02:36 7,3 C 6,7 C 4,4 C 92 % 1015,4 hPa 0,0 l/m 0 min 0 min 0 W/m 22,5 km/h (4 Bft) 97,87 %
02.02.2022 02:38 7,3 C 6,7 C 4,4 C 92 % 1015,4 hPa 0,0 l/m 0 min 0 min 0 W/m 16,1 km/h (3 Bft) 97,87 %
02.02.2022 02:40 7,3 C 6,7 C 4,4 C 91 % 1015,5 hPa 0,0 l/m 0 min 0 min 0 W/m 12,9 km/h (3 Bft) 97,87 %
02.02.2022 02:42 7,3 C 6,7 C 4,4 C 91 % 1015,5 hPa 0,0 l/m 0 min 0 min 0 W/m 12,9 km/h (3 Bft) 95,65 %
02.02.2022 02:44 7,4 C 6,7 C 4,4 C 91 % 1015,5 hPa 0,0 l/m 0 min 0 min 0 W/m 19,3 km/h (3 Bft) 95,74 %
02.02.2022 02:46 7,4 C 6,7 C 4,4 C 91 % 1015,6 hPa 0,0 l/m 0 min 0 min 0 W/m 16,1 km/h (3 Bft) 97,87 %
02.02.2022 02:48 7,4 C 6,7 C 4,4 C 91 % 1015,5 hPa 0,0 l/m 0 min 0 min 0 W/m 25,7 km/h (4 Bft) 97,87 %
02.02.2022 02:50 7,5 C 6,7 C 4,4 C 91 % 1015,5 hPa 0,0 l/m 0 min 0 min 0 W/m 19,3 km/h (3 Bft) 100,00 %
02.02.2022 02:52 7,5 C 6,7 C 4,4 C 91 % 1015,6 hPa 0,0 l/m 0 min 0 min 0 W/m 19,3 km/h (3 Bft) 97,87 %
02.02.2022 02:54 7,6 C 7,2 C 4,4 C 91 % 1015,6 hPa 0,0 l/m 0 min 0 min 0 W/m 19,3 km/h (3 Bft) 100,00 %
02.02.2022 02:56 7,6 C 7,2 C 4,4 C 91 % 1015,5 hPa 0,0 l/m 0 min 0 min 0 W/m 25,7 km/h (4 Bft) 97,87 %
02.02.2022 02:58 7,6 C 7,2 C 4,4 C 91 % 1015,7 hPa 0,0 l/m 0 min 0 min 0 W/m 19,3 km/h (3 Bft) 97,87 %
02.02.2022 03:00 7,6 C 7,2 C 4,4 C 91 % 1015,8 hPa 0,0 l/m 0 min 0 min 0 W/m 12,9 km/h (3 Bft) 100,00 %
02.02.2022 03:02 7,6 C 7,2 C 4,4 C 91 % 1015,8 hPa 0,0 l/m 0 min 0 min 0 W/m 25,7 km/h (4 Bft) 97,87 %
02.02.2022 03:04 7,6 C 7,2 C 4,4 C 90 % 1015,8 hPa 0,0 l/m 0 min 0 min 0 W/m 12,9 km/h (3 Bft) 100,00 %
02.02.2022 03:06 7,6 C 7,2 C 4,4 C 90 % 1015,9 hPa 0,0 l/m 0 min 0 min 0 W/m 22,5 km/h (4 Bft) 97,83 %
02.02.2022 03:08 7,6 C 7,2 C 4,4 C 90 % 1015,8 hPa 0,0 l/m 0 min 0 min 0 W/m 19,3 km/h (3 Bft) 100,00 %
02.02.2022 03:10 7,6 C 7,2 C 4,4 C 90 % 1015,7 hPa 0,0 l/m 0 min 0 min 0 W/m 19,3 km/h (3 Bft) 100,00 %
02.02.2022 03:12 7,6 C 7,2 C 4,4 C 90 % 1015,8 hPa 0,0 l/m 0 min 0 min 0 W/m 12,9 km/h (3 Bft) 97,87 %
02.02.2022 03:14 7,6 C 7,2 C 4,4 C 90 % 1015,6 hPa 0,0 l/m 0 min 0 min 0 W/m 16,1 km/h (3 Bft) 100,00 %
02.02.2022 03:16 7,6 C 6,7 C 4,4 C 90 % 1015,6 hPa 0,0 l/m 0 min 0 min 0 W/m 22,5 km/h (4 Bft) 97,87 %
02.02.2022 03:18 7,6 C 6,7 C 4,4 C 90 % 1015,8 hPa 0,0 l/m 0 min 0 min 0 W/m 16,1 km/h (3 Bft) 100,00 %
02.02.2022 03:20 7,6 C 6,7 C 4,4 C 90 % 1015,7 hPa 0,0 l/m 0 min 0 min 0 W/m 19,3 km/h (3 Bft) 100,00 %
02.02.2022 03:22 7,6 C 7,2 C 4,4 C 90 % 1015,8 hPa 0,0 l/m 0 min 0 min 0 W/m 25,7 km/h (4 Bft) 95,74 %
02.02.2022 03:24 7,6 C 7,2 C 4,4 C 90 % 1016,1 hPa 0,0 l/m 0 min 0 min 0 W/m 25,7 km/h (4 Bft) 97,87 %
02.02.2022 03:26 7,6 C 7,2 C 4,4 C 90 % 1016,0 hPa 0,0 l/m 0 min 0 min 0 W/m 19,3 km/h (3 Bft) 97,87 %
02.02.2022 03:28 7,6 C 7,2 C 4,4 C 90 % 1015,9 hPa 0,0 l/m 0 min 0 min 0 W/m 22,5 km/h (4 Bft) 97,87 %
02.02.2022 03:30 7,7 C 7,2 C 4,4 C 90 % 1015,9 hPa 0,0 l/m 0 min 0 min 0 W/m 12,9 km/h (3 Bft) 95,65 %
02.02.2022 03:32 7,6 C 6,7 C 4,4 C 90 % 1015,8 hPa 0,0 l/m 0 min 0 min 0 W/m 51,5 km/h (7 Bft) 97,87 %
02.02.2022 03:34 7,6 C 6,7 C 4,4 C 90 % 1015,7 hPa 0,0 l/m 0 min 0 min 0 W/m 22,5 km/h (4 Bft) 97,87 %
02.02.2022 03:36 7,6 C 6,7 C 4,4 C 90 % 1015,6 hPa 0,0 l/m 0 min 0 min 0 W/m 22,5 km/h (4 Bft) 97,87 %
02.02.2022 03:38 7,6 C 6,7 C 4,4 C 90 % 1015,6 hPa 0,0 l/m 0 min 0 min 0 W/m 22,5 km/h (4 Bft) 97,87 %
02.02.2022 03:40 7,6 C 6,7 C 4,4 C 90 % 1015,6 hPa 0,0 l/m 0 min 0 min 0 W/m 19,3 km/h (3 Bft) 95,74 %
02.02.2022 03:42 7,6 C 6,7 C 4,4 C 90 % 1015,6 hPa 0,0 l/m 0 min 0 min 0 W/m 22,5 km/h (4 Bft) 95,65 %
02.02.2022 03:44 7,6 C 6,7 C 4,4 C 90 % 1015,7 hPa 0,0 l/m 0 min 0 min 0 W/m 22,5 km/h (4 Bft) 95,74 %
02.02.2022 03:46 7,6 C 6,7 C 4,4 C 90 % 1015,7 hPa 0,0 l/m 0 min 0 min 0 W/m 19,3 km/h (3 Bft) 95,74 %
02.02.2022 03:48 7,5 C 6,7 C 4,4 C 90 % 1015,8 hPa 0,0 l/m 0 min 0 min 0 W/m 32,2 km/h (5 Bft) 91,49 %
02.02.2022 03:50 7,5 C 6,7 C 4,4 C 90 % 1015,7 hPa 0,0 l/m 0 min 0 min 0 W/m 25,7 km/h (4 Bft) 95,74 %
02.02.2022 03:52 7,5 C 6,7 C 4,4 C 89 % 1015,9 hPa 0,0 l/m 0 min 0 min 0 W/m 16,1 km/h (3 Bft) 95,74 %
02.02.2022 03:54 7,5 C 6,7 C 4,4 C 90 % 1015,8 hPa 0,0 l/m 0 min 0 min 0 W/m 19,3 km/h (3 Bft) 95,65 %
02.02.2022 03:56 7,5 C 6,7 C 4,4 C 89 % 1015,8 hPa 0,0 l/m 0 min 0 min 0 W/m 19,3 km/h (3 Bft) 95,74 %
02.02.2022 03:58 7,5 C 6,7 C 4,4 C 89 % 1016,1 hPa 0,0 l/m 0 min 0 min 0 W/m 16,1 km/h (3 Bft) 95,74 %
02.02.2022 04:00 7,5 C 6,7 C 4,4 C 89 % 1016,1 hPa 0,0 l/m 0 min 0 min 0 W/m 19,3 km/h (3 Bft) 95,74 %
02.02.2022 04:02 7,6 C 6,7 C 4,4 C 89 % 1016,1 hPa 0,0 l/m 0 min 0 min 0 W/m 29,0 km/h (5 Bft) 93,75 %
02.02.2022 04:07 7,6 C 7,2 C 4,4 C 89 % 1015,7 hPa 0,0 l/m 0 min 0 min 0 W/m 25,7 km/h (4 Bft) 97,92 %
02.02.2022 04:08 7,6 C 6,7 C 4,4 C 89 % 1015,7 hPa 0,0 l/m 0 min 0 min 0 W/m 16,1 km/h (3 Bft) 100,00 %
02.02.2022 04:10 7,6 C 6,7 C 4,4 C 89 % 1015,7 hPa 0,0 l/m 0 min 0 min 0 W/m 19,3 km/h (3 Bft) 100,00 %
02.02.2022 04:12 7,6 C 6,7 C 4,4 C 89 % 1015,7 hPa 0,0 l/m 0 min 0 min 0 W/m 25,7 km/h (4 Bft) 97,87 %
02.02.2022 04:14 7,6 C 6,7 C 4,4 C 89 % 1015,8 hPa 0,0 l/m 0 min 0 min 0 W/m 22,5 km/h (4 Bft) 100,00 %
02.02.2022 04:16 7,6 C 6,7 C 4,4 C 89 % 1015,8 hPa 0,0 l/m 0 min 0 min 0 W/m 22,5 km/h (4 Bft) 100,00 %
02.02.2022 04:18 7,6 C 6,7 C 4,4 C 89 % 1015,8 hPa 0,0 l/m 0 min 0 min 0 W/m 19,3 km/h (3 Bft) 100,00 %
02.02.2022 04:20 7,6 C 6,7 C 4,4 C 89 % 1015,9 hPa 0,0 l/m 0 min 0 min 0 W/m 16,1 km/h (3 Bft) 100,00 %
02.02.2022 04:22 7,6 C 6,7 C 4,4 C 89 % 1015,8 hPa 0,0 l/m 0 min 0 min 0 W/m 16,1 km/h (3 Bft) 100,00 %
02.02.2022 04:24 7,5 C 6,7 C 4,4 C 89 % 1015,9 hPa 0,0 l/m 0 min 0 min 0 W/m 25,7 km/h (4 Bft) 100,00 %
02.02.2022 04:26 7,5 C 6,7 C 4,4 C 89 % 1015,8 hPa 0,0 l/m 0 min 0 min 0 W/m 19,3 km/h (3 Bft) 100,00 %
02.02.2022 04:28 7,4 C 6,7 C 4,4 C 89 % 1015,8 hPa 0,0 l/m 0 min 0 min 0 W/m 16,1 km/h (3 Bft) 100,00 %
02.02.2022 04:30 7,4 C 6,7 C 4,4 C 89 % 1016,0 hPa 0,0 l/m 0 min 0 min 0 W/m 19,3 km/h (3 Bft) 52,38 %
02.02.2022 04:32 7,4 C 6,7 C 4,4 C 89 % 1016,1 hPa 0,0 l/m 0 min 0 min 0 W/m 25,7 km/h (4 Bft) 100,00 %
02.02.2022 04:34 7,4 C 6,7 C 4,4 C 89 % 1016,0 hPa 0,0 l/m 0 min 0 min 0 W/m 22,5 km/h (4 Bft) 97,83 %
02.02.2022 04:36 7,4 C 6,7 C 4,4 C 89 % 1016,0 hPa 0,0 l/m 0 min 0 min 0 W/m 32,2 km/h (5 Bft) 100,00 %
02.02.2022 04:38 7,4 C 6,7 C 4,4 C 89 % 1016,0 hPa 0,0 l/m 0 min 0 min 0 W/m 16,1 km/h (3 Bft) 97,87 %
02.02.2022 04:40 7,4 C 6,7 C 4,4 C 89 % 1016,1 hPa 0,0 l/m 0 min 0 min 0 W/m 16,1 km/h (3 Bft) 100,00 %
02.02.2022 04:42 7,4 C 6,7 C 4,4 C 89 % 1016,1 hPa 0,0 l/m 0 min 0 min 0 W/m 16,1 km/h (3 Bft) 100,00 %
02.02.2022 04:44 7,4 C 6,7 C 3,9 C 89 % 1016,2 hPa 0,0 l/m 0 min 0 min 0 W/m 25,7 km/h (4 Bft) 100,00 %
02.02.2022 04:46 7,4 C 6,7 C 3,9 C 89 % 1016,2 hPa 0,0 l/m 0 min 0 min 0 W/m 16,1 km/h (3 Bft) 100,00 %
02.02.2022 04:48 7,4 C 6,7 C 4,4 C 89 % 1016,1 hPa 0,0 l/m 0 min 0 min 0 W/m 16,1 km/h (3 Bft) 97,87 %
02.02.2022 04:50 7,4 C 6,7 C 3,9 C 89 % 1016,1 hPa 0,0 l/m 0 min 0 min 0 W/m 16,1 km/h (3 Bft) 97,87 %
02.02.2022 04:52 7,4 C 6,7 C 3,9 C 89 % 1016,1 hPa 0,0 l/m 0 min 0 min 0 W/m 16,1 km/h (3 Bft) 97,87 %
02.02.2022 04:54 7,4 C 6,7 C 4,4 C 89 % 1016,1 hPa 0,0 l/m 0 min 0 min 0 W/m 22,5 km/h (4 Bft) 97,87 %
02.02.2022 04:56 7,4 C 6,7 C 4,4 C 89 % 1016,0 hPa 0,0 l/m 0 min 0 min 0 W/m 25,7 km/h (4 Bft) 97,87 %
02.02.2022 04:58 7,4 C 6,7 C 3,9 C 89 % 1015,9 hPa 0,0 l/m 0 min 0 min 0 W/m 22,5 km/h (4 Bft) 97,83 %
02.02.2022 05:00 7,4 C 6,7 C 3,9 C 89 % 1015,9 hPa 0,0 l/m 0 min 0 min 0 W/m 16,1 km/h (3 Bft) 97,87 %
02.02.2022 05:02 7,3 C 6,7 C 3,9 C 89 % 1016,0 hPa 0,0 l/m 0 min 0 min 0 W/m 29,0 km/h (5 Bft) 95,74 %
02.02.2022 05:04 7,3 C 6,7 C 3,9 C 89 % 1016,1 hPa 0,0 l/m 0 min 0 min 0 W/m 19,3 km/h (3 Bft) 97,87 %
02.02.2022 05:06 7,3 C 6,7 C 3,9 C 89 % 1016,1 hPa 0,0 l/m 0 min 0 min 0 W/m 16,1 km/h (3 Bft) 97,87 %
02.02.2022 05:08 7,3 C 6,7 C 3,9 C 89 % 1016,1 hPa 0,0 l/m 0 min 0 min 0 W/m 12,9 km/h (3 Bft) 95,74 %
02.02.2022 05:10 7,3 C 6,7 C 3,9 C 89 % 1016,1 hPa 0,0 l/m 0 min 0 min 0 W/m 19,3 km/h (3 Bft) 97,83 %
02.02.2022 05:12 7,2 C 6,7 C 3,9 C 89 % 1016,1 hPa 0,0 l/m 0 min 0 min 0 W/m 12,9 km/h (3 Bft) 95,74 %
02.02.2022 05:14 7,2 C 6,7 C 3,9 C 89 % 1016,1 hPa 0,0 l/m 0 min 0 min 0 W/m 25,7 km/h (4 Bft) 97,87 %
02.02.2022 05:16 7,2 C 6,7 C 3,9 C 89 % 1016,1 hPa 0,0 l/m 0 min 0 min 0 W/m 12,9 km/h (3 Bft) 97,87 %
02.02.2022 05:18 7,2 C 6,7 C 3,9 C 89 % 1016,1 hPa 0,0 l/m 0 min 0 min 0 W/m 16,1 km/h (3 Bft) 97,87 %
02.02.2022 05:20 7,2 C 6,7 C 3,9 C 89 % 1016,1 hPa 0,0 l/m 0 min 0 min 0 W/m 22,5 km/h (4 Bft) 95,74 %
02.02.2022 05:22 7,2 C 6,7 C 3,9 C 89 % 1016,2 hPa 0,0 l/m 0 min 0 min 0 W/m 19,3 km/h (3 Bft) 97,83 %
02.02.2022 05:24 7,2 C 6,7 C 3,9 C 89 % 1016,2 hPa 0,0 l/m 0 min 0 min 0 W/m 19,3 km/h (3 Bft) 93,62 %
02.02.2022 05:26 7,2 C 6,7 C 3,9 C 89 % 1016,3 hPa 0,0 l/m 0 min 0 min 0 W/m 25,7 km/h (4 Bft) 97,87 %
02.02.2022 05:28 7,2 C 6,7 C 3,9 C 89 % 1016,3 hPa 0,0 l/m 0 min 0 min 0 W/m 16,1 km/h (3 Bft) 97,87 %
02.02.2022 05:30 7,2 C 6,7 C 3,9 C 89 % 1016,5 hPa 0,0 l/m 0 min 0 min 0 W/m 16,1 km/h (3 Bft) 97,87 %
02.02.2022 05:32 7,2 C 6,7 C 3,9 C 89 % 1016,3 hPa 0,0 l/m 0 min 0 min 0 W/m 22,5 km/h (4 Bft) 95,74 %
02.02.2022 05:34 7,2 C 6,7 C 3,9 C 89 % 1016,3 hPa 0,0 l/m 0 min 0 min 0 W/m 16,1 km/h (3 Bft) 95,65 %
02.02.2022 05:36 7,2 C 6,7 C 3,9 C 89 % 1016,4 hPa 0,0 l/m 0 min 0 min 0 W/m 19,3 km/h (3 Bft) 95,74 %
02.02.2022 05:38 7,2 C 6,7 C 3,9 C 89 % 1016,4 hPa 0,0 l/m 0 min 0 min 0 W/m 16,1 km/h (3 Bft) 95,74 %
02.02.2022 05:40 7,2 C 6,7 C 3,9 C 89 % 1016,4 hPa 0,0 l/m 0 min 0 min 0 W/m 16,1 km/h (3 Bft) 97,87 %
02.02.2022 05:42 7,2 C 6,7 C 3,9 C 89 % 1016,3 hPa 0,0 l/m 0 min 0 min 0 W/m 19,3 km/h (3 Bft) 97,87 %
02.02.2022 05:44 7,2 C 6,7 C 3,9 C 89 % 1016,4 hPa 0,0 l/m 0 min 0 min 0 W/m 16,1 km/h (3 Bft) 95,74 %
02.02.2022 05:46 7,2 C 6,7 C 3,9 C 89 % 1016,4 hPa 0,0 l/m 0 min 0 min 0 W/m 16,1 km/h (3 Bft) 97,87 %
02.02.2022 05:48 7,2 C 6,7 C 3,9 C 89 % 1016,3 hPa 0,0 l/m 0 min 0 min 0 W/m 16,1 km/h (3 Bft) 95,74 %
02.02.2022 05:50 7,2 C 6,7 C 3,9 C 89 % 1016,3 hPa 0,0 l/m 0 min 0 min 0 W/m 12,9 km/h (3 Bft) 97,87 %
02.02.2022 05:52 7,2 C 6,7 C 3,9 C 89 % 1016,4 hPa 0,0 l/m 0 min 0 min 0 W/m 16,1 km/h (3 Bft) 95,74 %
02.02.2022 05:54 7,2 C 6,7 C 3,9 C 89 % 1016,4 hPa 0,0 l/m 0 min 0 min 0 W/m 12,9 km/h (3 Bft) 97,87 %
02.02.2022 05:56 7,2 C 6,7 C 3,9 C 89 % 1016,3 hPa 0,0 l/m 0 min 0 min 0 W/m 19,3 km/h (3 Bft) 97,83 %
02.02.2022 05:58 7,2 C 6,7 C 3,9 C 89 % 1016,4 hPa 0,0 l/m 0 min 0 min 0 W/m 19,3 km/h (3 Bft) 97,87 %
02.02.2022 06:00 7,2 C 6,7 C 3,9 C 89 % 1016,4 hPa 0,0 l/m 0 min 0 min 0 W/m 16,1 km/h (3 Bft) 97,87 %
02.02.2022 06:02 7,2 C 6,7 C 3,9 C 89 % 1016,5 hPa 0,0 l/m 0 min 0 min 0 W/m 16,1 km/h (3 Bft) 95,74 %
02.02.2022 06:04 7,2 C 6,7 C 3,9 C 89 % 1016,5 hPa 0,0 l/m 0 min 0 min 0 W/m 16,1 km/h (3 Bft) 93,62 %
02.02.2022 06:08 7,2 C 6,7 C 3,9 C 90 % 1016,5 hPa 0,0 l/m 0 min 0 min 0 W/m 19,3 km/h (3 Bft) 94,62 %
02.02.2022 06:10 7,2 C 6,7 C 3,9 C 90 % 1016,5 hPa 0,0 l/m 0 min 0 min 0 W/m 22,5 km/h (4 Bft) 95,74 %
02.02.2022 06:12 7,2 C 6,7 C 3,9 C 90 % 1016,6 hPa 0,0 l/m 0 min 0 min 0 W/m 12,9 km/h (3 Bft) 95,74 %
02.02.2022 06:14 7,2 C 6,7 C 3,9 C 90 % 1016,6 hPa 0,0 l/m 0 min 0 min 0 W/m 16,1 km/h (3 Bft) 97,87 %
02.02.2022 06:16 7,2 C 6,7 C 3,9 C 90 % 1016,6 hPa 0,0 l/m 0 min 0 min 0 W/m 19,3 km/h (3 Bft) 97,87 %
02.02.2022 06:18 7,2 C 6,7 C 3,9 C 90 % 1016,6 hPa 0,0 l/m 0 min 0 min 0 W/m 16,1 km/h (3 Bft) 97,87 %
02.02.2022 06:20 7,2 C 6,7 C 3,9 C 90 % 1016,6 hPa 0,0 l/m 0 min 0 min 0 W/m 12,9 km/h (3 Bft) 97,83 %
02.02.2022 06:22 7,2 C 6,7 C 3,9 C 90 % 1016,6 hPa 0,0 l/m 0 min 0 min 0 W/m 19,3 km/h (3 Bft) 97,87 %
02.02.2022 06:24 7,2 C 6,7 C 3,9 C 90 % 1016,7 hPa 0,0 l/m 0 min 0 min 0 W/m 16,1 km/h (3 Bft) 97,87 %
02.02.2022 06:26 7,2 C 6,7 C 3,9 C 90 % 1016,7 hPa 0,0 l/m 0 min 0 min 0 W/m 12,9 km/h (3 Bft) 93,62 %
02.02.2022 06:28 7,2 C 6,7 C 3,9 C 90 % 1016,7 hPa 0,0 l/m 0 min 0 min 0 W/m 19,3 km/h (3 Bft) 95,74 %
02.02.2022 06:30 7,2 C 6,7 C 3,9 C 90 % 1016,7 hPa 0,0 l/m 0 min 0 min 0 W/m 16,1 km/h (3 Bft) 97,87 %
02.02.2022 06:32 7,2 C 6,7 C 3,9 C 90 % 1016,7 hPa 0,0 l/m 0 min 0 min 0 W/m 16,1 km/h (3 Bft) 97,87 %
02.02.2022 06:34 7,2 C 6,7 C 3,9 C 90 % 1016,7 hPa 0,0 l/m 0 min 0 min 0 W/m 12,9 km/h (3 Bft) 95,74 %
02.02.2022 06:36 7,2 C 6,7 C 3,9 C 90 % 1016,7 hPa 0,0 l/m 0 min 0 min 0 W/m 12,9 km/h (3 Bft) 95,74 %
02.02.2022 06:38 7,2 C 6,7 C 3,9 C 90 % 1016,8 hPa 0,0 l/m 0 min 0 min 0 W/m 16,1 km/h (3 Bft) 97,87 %
02.02.2022 06:40 7,2 C 6,7 C 3,9 C 90 % 1016,8 hPa 0,0 l/m 0 min 0 min 0 W/m 12,9 km/h (3 Bft) 97,87 %
02.02.2022 06:42 7,2 C 6,7 C 3,9 C 90 % 1016,8 hPa 0,0 l/m 0 min 0 min 0 W/m 12,9 km/h (3 Bft) 97,87 %
02.02.2022 06:44 7,2 C 6,7 C 3,9 C 90 % 1016,8 hPa 0,0 l/m 0 min 0 min 0 W/m 12,9 km/h (3 Bft) 97,83 %
02.02.2022 06:46 7,2 C 6,7 C 3,9 C 90 % 1016,9 hPa 0,0 l/m 0 min 0 min 0 W/m 12,9 km/h (3 Bft) 100,00 %
02.02.2022 06:48 7,2 C 6,7 C 3,9 C 90 % 1016,9 hPa 0,0 l/m 0 min 0 min 0 W/m 12,9 km/h (3 Bft) 100,00 %
02.02.2022 06:50 7,2 C 6,7 C 3,9 C 90 % 1016,9 hPa 0,0 l/m 0 min 0 min 0 W/m 6,4 km/h (2 Bft) 100,00 %
02.02.2022 06:52 7,2 C 6,7 C 3,9 C 90 % 1017,0 hPa 0,0 l/m 0 min 0 min 0 W/m 16,1 km/h (3 Bft) 100,00 %
02.02.2022 06:54 7,2 C 6,7 C 3,9 C 90 % 1017,0 hPa 0,0 l/m 0 min 0 min 0 W/m 12,9 km/h (3 Bft) 100,00 %
02.02.2022 06:56 7,2 C 6,7 C 3,9 C 90 % 1017,1 hPa 0,0 l/m 0 min 0 min 0 W/m 12,9 km/h (3 Bft) 100,00 %
02.02.2022 06:58 7,2 C 6,7 C 3,9 C 90 % 1017,1 hPa 0,0 l/m 0 min 0 min 0 W/m 12,9 km/h (3 Bft) 100,00 %
02.02.2022 07:00 7,2 C 6,7 C 3,9 C 90 % 1017,2 hPa 0,0 l/m 0 min 0 min 0 W/m 9,7 km/h (2 Bft) 100,00 %
02.02.2022 07:02 7,2 C 6,7 C 3,9 C 90 % 1017,1 hPa 0,0 l/m 0 min 0 min 0 W/m 12,9 km/h (3 Bft) 100,00 %
02.02.2022 07:04 7,2 C 6,7 C 3,9 C 90 % 1017,1 hPa 0,0 l/m 0 min 0 min 0 W/m 16,1 km/h (3 Bft) 100,00 %
02.02.2022 07:06 7,2 C 6,7 C 3,9 C 90 % 1017,1 hPa 0,0 l/m 0 min 0 min 0 W/m 12,9 km/h (3 Bft) 100,00 %
02.02.2022 07:08 7,2 C 6,7 C 3,9 C 90 % 1017,2 hPa 0,0 l/m 0 min 0 min 0 W/m 9,7 km/h (2 Bft) 100,00 %
02.02.2022 07:10 7,2 C 6,7 C 3,9 C 90 % 1017,2 hPa 0,0 l/m 0 min 0 min 0 W/m 12,9 km/h (3 Bft) 100,00 %
02.02.2022 07:12 7,2 C 6,7 C 3,9 C 90 % 1017,4 hPa 0,0 l/m 0 min 0 min 0 W/m 16,1 km/h (3 Bft) 100,00 %
02.02.2022 07:14 7,2 C 6,7 C 3,9 C 90 % 1017,4 hPa 0,0 l/m 0 min 0 min 0 W/m 16,1 km/h (3 Bft) 100,00 %
02.02.2022 07:16 7,2 C 6,7 C 3,9 C 90 % 1017,4 hPa 0,0 l/m 0 min 0 min 0 W/m 12,9 km/h (3 Bft) 100,00 %
02.02.2022 07:18 7,2 C 6,7 C 3,9 C 90 % 1017,4 hPa 0,0 l/m 0 min 0 min 0 W/m 12,9 km/h (3 Bft) 100,00 %
02.02.2022 07:20 7,2 C 6,7 C 3,9 C 90 % 1017,2 hPa 0,0 l/m 0 min 0 min 0 W/m 12,9 km/h (3 Bft) 100,00 %
02.02.2022 07:22 7,2 C 6,7 C 3,9 C 90 % 1017,3 hPa 0,0 l/m 0 min 0 min 0 W/m 22,5 km/h (4 Bft) 100,00 %
02.02.2022 07:24 7,2 C 6,7 C 3,9 C 90 % 1017,5 hPa 0,0 l/m 0 min 0 min 0 W/m 22,5 km/h (4 Bft) 100,00 %
02.02.2022 07:26 7,2 C 6,7 C 3,9 C 90 % 1017,4 hPa 0,0 l/m 0 min 0 min 0 W/m 12,9 km/h (3 Bft) 95,74 %
02.02.2022 07:28 7,2 C 6,7 C 3,9 C 90 % 1017,5 hPa 0,0 l/m 0 min 0 min 0 W/m 16,1 km/h (3 Bft) 100,00 %
02.02.2022 07:30 7,2 C 6,7 C 3,9 C 90 % 1017,5 hPa 0,0 l/m 0 min 0 min 0 W/m 16,1 km/h (3 Bft) 97,83 %
02.02.2022 07:32 7,2 C 6,7 C 3,9 C 90 % 1017,4 hPa 0,0 l/m 0 min 0 min 0 W/m 9,7 km/h (2 Bft) 97,87 %
02.02.2022 07:34 7,2 C 6,7 C 3,9 C 91 % 1017,4 hPa 0,0 l/m 0 min 0 min 0 W/m 9,7 km/h (2 Bft) 97,87 %
02.02.2022 07:36 7,2 C 6,7 C 3,9 C 91 % 1017,4 hPa 0,0 l/m 0 min 0 min 0 W/m 6,4 km/h (2 Bft) 95,74 %
02.02.2022 07:38 7,2 C 6,7 C 3,9 C 91 % 1017,4 hPa 0,0 l/m 0 min 0 min 0 W/m 6,4 km/h (2 Bft) 95,74 %
02.02.2022 07:40 7,1 C 6,1 C 3,9 C 91 % 1017,5 hPa 0,0 l/m 0 min 0 min 0 W/m 6,4 km/h (2 Bft) 95,74 %
02.02.2022 07:42 7,1 C 6,1 C 3,9 C 91 % 1017,4 hPa 0,0 l/m 0 min 0 min 0 W/m 9,7 km/h (2 Bft) 95,65 %
02.02.2022 07:44 7,1 C 6,1 C 3,9 C 91 % 1017,5 hPa 0,0 l/m 0 min 0 min 0 W/m 12,9 km/h (3 Bft) 95,74 %
02.02.2022 07:46 7,1 C 6,1 C 3,3 C 91 % 1017,6 hPa 0,0 l/m 0 min 0 min 0 W/m 12,9 km/h (3 Bft) 95,74 %
02.02.2022 07:48 7,1 C 6,1 C 3,3 C 91 % 1017,6 hPa 0,0 l/m 0 min 0 min 0 W/m 16,1 km/h (3 Bft) 93,62 %
02.02.2022 07:50 7,0 C 6,1 C 3,3 C 91 % 1017,7 hPa 0,0 l/m 0 min 0 min 0 W/m 12,9 km/h (3 Bft) 93,62 %
02.02.2022 07:52 7,0 C 6,1 C 3,3 C 91 % 1017,6 hPa 0,0 l/m 0 min 0 min 0 W/m 9,7 km/h (2 Bft) 95,83 %
02.02.2022 07:54 7,0 C 6,1 C 3,3 C 91 % 1017,7 hPa 0,0 l/m 0 min 0 min 0 W/m 12,9 km/h (3 Bft) 93,48 %
02.02.2022 07:56 7,0 C 6,1 C 3,9 C 91 % 1017,7 hPa 0,0 l/m 0 min 0 min 0 W/m 12,9 km/h (3 Bft) 95,74 %
02.02.2022 07:58 7,0 C 6,1 C 3,9 C 91 % 1017,7 hPa 0,0 l/m 0 min 0 min 0 W/m 9,7 km/h (2 Bft) 91,49 %
02.02.2022 08:00 6,9 C 6,1 C 3,3 C 91 % 1017,6 hPa 0,0 l/m 0 min 0 min 0 W/m 12,9 km/h (3 Bft) 95,74 %
02.02.2022 08:02 6,9 C 6,1 C 3,9 C 92 % 1017,7 hPa 0,0 l/m 0 min 0 min 0 W/m 12,9 km/h (3 Bft) 95,74 %
02.02.2022 08:04 6,9 C 6,1 C 3,9 C 92 % 1017,7 hPa 0,0 l/m 0 min 0 min 0 W/m 12,9 km/h (3 Bft) 95,74 %
02.02.2022 08:06 6,9 C 6,1 C 3,9 C 92 % 1017,7 hPa 0,0 l/m 0 min 0 min 0 W/m 9,7 km/h (2 Bft) 95,65 %
02.02.2022 08:08 6,9 C 6,1 C 3,9 C 92 % 1017,7 hPa 0,0 l/m 0 min 0 min 0 W/m 16,1 km/h (3 Bft) 97,83 %
02.02.2022 08:10 6,9 C 6,1 C 3,9 C 92 % 1017,9 hPa 0,0 l/m 0 min 0 min 0 W/m 16,1 km/h (3 Bft) 97,87 %
02.02.2022 08:12 7,0 C 6,7 C 3,9 C 92 % 1017,8 hPa 0,0 l/m 0 min 0 min 1 W/m 19,3 km/h (3 Bft) 95,74 %
02.02.2022 08:14 7,0 C 6,7 C 3,9 C 92 % 1017,9 hPa 0,0 l/m 0 min 0 min 5 W/m 16,1 km/h (3 Bft) 97,87 %
02.02.2022 08:16 7,0 C 6,7 C 3,9 C 92 % 1017,9 hPa 0,0 l/m 0 min 0 min 7 W/m 12,9 km/h (3 Bft) 97,87 %
02.02.2022 08:18 7,0 C 6,1 C 3,9 C 92 % 1018,0 hPa 0,0 l/m 0 min 0 min 7 W/m 12,9 km/h (3 Bft) 97,83 %
02.02.2022 08:20 7,0 C 6,7 C 3,9 C 92 % 1017,9 hPa 0,0 l/m 0 min 0 min 9 W/m 12,9 km/h (3 Bft) 97,87 %
02.02.2022 08:22 7,0 C 6,1 C 3,9 C 92 % 1017,9 hPa 0,0 l/m 0 min 0 min 10 W/m 16,1 km/h (3 Bft) 95,74 %
02.02.2022 08:24 7,0 C 6,1 C 3,9 C 92 % 1018,0 hPa 0,0 l/m 0 min 0 min 11 W/m 12,9 km/h (3 Bft) 97,87 %
02.02.2022 08:26 7,0 C 6,1 C 3,9 C 92 % 1018,1 hPa 0,0 l/m 0 min 0 min 11 W/m 9,7 km/h (2 Bft) 97,87 %
02.02.2022 08:28 7,0 C 6,1 C 3,9 C 92 % 1018,1 hPa 0,0 l/m 0 min 0 min 11 W/m 16,1 km/h (3 Bft) 95,74 %
02.02.2022 08:30 7,0 C 6,1 C 3,9 C 92 % 1018,1 hPa 0,0 l/m 0 min 0 min 12 W/m 16,1 km/h (3 Bft) 95,65 %
02.02.2022 08:32 7,0 C 6,1 C 3,9 C 92 % 1018,2 hPa 0,0 l/m 0 min 0 min 12 W/m 9,7 km/h (2 Bft) 100,00 %
02.02.2022 08:34 7,0 C 6,1 C 3,9 C 92 % 1018,3 hPa 0,0 l/m 0 min 0 min 13 W/m 9,7 km/h (2 Bft) 74,47 %
02.02.2022 08:36 6,9 C 6,1 C 3,9 C 92 % 1018,3 hPa 0,0 l/m 0 min 0 min 15 W/m 12,9 km/h (3 Bft) 75,68 %
02.02.2022 08:38 6,9 C 6,1 C 3,9 C 92 % 1018,3 hPa 0,0 l/m 0 min 0 min 18 W/m 22,5 km/h (4 Bft) 95,74 %
02.02.2022 08:40 6,9 C 6,1 C 3,9 C 92 % 1018,3 hPa 0,0 l/m 0 min 0 min 20 W/m 12,9 km/h (3 Bft) 97,83 %
02.02.2022 08:42 6,9 C 6,1 C 3,9 C 92 % 1018,4 hPa 0,0 l/m 0 min 0 min 23 W/m 16,1 km/h (3 Bft) 97,87 %
02.02.2022 08:43 6,9 C 6,1 C 3,9 C 92 % 1018,4 hPa 0,0 l/m 0 min 0 min 27 W/m 12,9 km/h (3 Bft) 97,87 %
02.02.2022 08:46 6,9 C 6,1 C 3,9 C 92 % 1018,4 hPa 0,0 l/m 0 min 0 min 33 W/m 12,9 km/h (3 Bft) 95,74 %
02.02.2022 08:48 6,9 C 6,1 C 3,9 C 92 % 1018,3 hPa 0,0 l/m 0 min 0 min 34 W/m 16,1 km/h (3 Bft) 97,87 %
02.02.2022 08:50 6,9 C 6,7 C 3,9 C 92 % 1018,3 hPa 0,0 l/m 0 min 0 min 33 W/m 12,9 km/h (3 Bft) 95,74 %
02.02.2022 08:52 6,9 C 6,7 C 3,9 C 92 % 1018,3 hPa 0,0 l/m 0 min 0 min 33 W/m 12,9 km/h (3 Bft) 95,65 %
02.02.2022 08:54 6,9 C 6,7 C 3,9 C 92 % 1018,3 hPa 0,0 l/m 0 min 0 min 35 W/m 9,7 km/h (2 Bft) 97,87 %
02.02.2022 08:56 6,9 C 6,7 C 3,9 C 92 % 1018,4 hPa 0,0 l/m 0 min 0 min 38 W/m 12,9 km/h (3 Bft) 97,87 %
02.02.2022 08:58 6,9 C 6,7 C 3,9 C 92 % 1018,4 hPa 0,0 l/m 0 min 0 min 47 W/m 19,3 km/h (3 Bft) 97,87 %
02.02.2022 09:00 6,9 C 6,7 C 3,9 C 92 % 1018,5 hPa 0,0 l/m 0 min 0 min 47 W/m 19,3 km/h (3 Bft) 97,87 %
02.02.2022 09:02 6,9 C 6,7 C 3,9 C 92 % 1018,5 hPa 0,0 l/m 0 min 0 min 46 W/m 12,9 km/h (3 Bft) 97,87 %
02.02.2022 09:04 6,9 C 6,7 C 3,9 C 92 % 1018,5 hPa 0,0 l/m 0 min 0 min 48 W/m 12,9 km/h (3 Bft) 97,83 %
02.02.2022 09:06 6,9 C 6,7 C 3,9 C 92 % 1018,5 hPa 0,0 l/m 0 min 0 min 43 W/m 19,3 km/h (3 Bft) 97,87 %
02.02.2022 09:08 6,9 C 6,7 C 3,9 C 92 % 1018,5 hPa 0,0 l/m 0 min 0 min 44 W/m 19,3 km/h (3 Bft) 95,74 %
02.02.2022 09:10 7,0 C 6,7 C 3,9 C 92 % 1018,6 hPa 0,0 l/m 0 min 0 min 53 W/m 16,1 km/h (3 Bft) 95,74 %
02.02.2022 09:12 7,0 C 6,7 C 3,9 C 92 % 1018,5 hPa 0,0 l/m 0 min 0 min 59 W/m 12,9 km/h (3 Bft) 97,87 %
02.02.2022 09:14 7,0 C 6,7 C 3,9 C 92 % 1018,6 hPa 0,0 l/m 2 min 0 min 68 W/m 12,9 km/h (3 Bft) 97,87 %
02.02.2022 09:16 7,1 C 6,7 C 3,9 C 92 % 1018,7 hPa 0,0 l/m 2 min 0 min 70 W/m 12,9 km/h (3 Bft) 95,65 %
02.02.2022 09:18 7,1 C 6,7 C 3,9 C 92 % 1018,8 hPa 0,0 l/m 0 min 0 min 60 W/m 19,3 km/h (3 Bft) 97,87 %
02.02.2022 09:20 7,1 C 6,7 C 3,9 C 92 % 1018,8 hPa 0,0 l/m 0 min 0 min 56 W/m 16,1 km/h (3 Bft) 95,74 %
02.02.2022 09:22 7,1 C 6,7 C 3,9 C 92 % 1018,7 hPa 0,0 l/m 0 min 0 min 56 W/m 12,9 km/h (3 Bft) 97,87 %
02.02.2022 09:24 7,1 C 6,7 C 3,9 C 91 % 1018,8 hPa 0,0 l/m 0 min 0 min 73 W/m 12,9 km/h (3 Bft) 100,00 %
02.02.2022 09:26 7,1 C 6,7 C 4,4 C 92 % 1018,7 hPa 0,0 l/m 2 min 0 min 88 W/m 16,1 km/h (3 Bft) 100,00 %
02.02.2022 09:28 7,2 C 6,7 C 4,4 C 92 % 1018,8 hPa 0,0 l/m 2 min 0 min 84 W/m 12,9 km/h (3 Bft) 97,83 %
02.02.2022 09:30 7,2 C 7,2 C 4,4 C 92 % 1018,9 hPa 0,0 l/m 2 min 0 min 86 W/m 9,7 km/h (2 Bft) 100,00 %
02.02.2022 09:32 7,2 C 7,2 C 4,4 C 92 % 1018,8 hPa 0,0 l/m 0 min 0 min 74 W/m 16,1 km/h (3 Bft) 97,87 %
02.02.2022 09:34 7,2 C 7,2 C 4,4 C 92 % 1018,8 hPa 0,0 l/m 0 min 0 min 64 W/m 12,9 km/h (3 Bft) 97,87 %
02.02.2022 09:36 7,2 C 7,2 C 4,4 C 92 % 1018,8 hPa 0,0 l/m 0 min 0 min 71 W/m 12,9 km/h (3 Bft) 97,87 %
02.02.2022 09:38 7,2 C 7,2 C 4,4 C 92 % 1018,8 hPa 0,0 l/m 2 min 0 min 103 W/m 12,9 km/h (3 Bft) 97,87 %
02.02.2022 09:40 7,2 C 7,2 C 4,4 C 91 % 1018,9 hPa 0,0 l/m 2 min 0 min 115 W/m 12,9 km/h (3 Bft) 95,65 %
02.02.2022 09:42 7,3 C 7,2 C 4,4 C 91 % 1019,0 hPa 0,0 l/m 2 min 0 min 112 W/m 12,9 km/h (3 Bft) 97,87 %
02.02.2022 09:44 7,3 C 7,2 C 4,4 C 91 % 1019,0 hPa 0,0 l/m 0 min 0 min 76 W/m 12,9 km/h (3 Bft) 97,87 %
02.02.2022 09:46 7,3 C 7,2 C 4,4 C 91 % 1019,1 hPa 0,0 l/m 0 min 0 min 65 W/m 25,7 km/h (4 Bft) 97,87 %
02.02.2022 09:48 7,3 C 7,2 C 4,4 C 91 % 1019,1 hPa 0,0 l/m 0 min 0 min 91 W/m 22,5 km/h (4 Bft) 97,87 %
02.02.2022 09:50 7,3 C 7,2 C 4,4 C 91 % 1019,2 hPa 0,0 l/m 0 min 0 min 70 W/m 12,9 km/h (3 Bft) 97,87 %
02.02.2022 09:52 7,3 C 7,2 C 4,4 C 91 % 1019,2 hPa 0,0 l/m 2 min 0 min 121 W/m 12,9 km/h (3 Bft) 95,65 %
02.02.2022 09:54 7,3 C 7,2 C 4,4 C 91 % 1019,1 hPa 0,0 l/m 2 min 0 min 168 W/m 9,7 km/h (2 Bft) 97,87 %
02.02.2022 09:56 7,4 C 7,2 C 4,4 C 91 % 1019,1 hPa 0,0 l/m 2 min 0 min 118 W/m 16,1 km/h (3 Bft) 97,87 %
02.02.2022 09:58 7,4 C 7,2 C 4,4 C 91 % 1019,3 hPa 0,0 l/m 0 min 0 min 60 W/m 16,1 km/h (3 Bft) 97,87 %
02.02.2022 10:00 7,4 C 7,2 C 4,4 C 91 % 1019,3 hPa 0,0 l/m 0 min 0 min 70 W/m 29,0 km/h (5 Bft) 97,87 %
02.02.2022 10:02 7,4 C 7,2 C 4,4 C 91 % 1019,3 hPa 0,0 l/m 0 min 0 min 90 W/m 16,1 km/h (3 Bft) 95,74 %
02.02.2022 10:04 7,4 C 7,2 C 4,4 C 91 % 1019,4 hPa 0,0 l/m 2 min 0 min 120 W/m 16,1 km/h (3 Bft) 97,83 %
02.02.2022 10:06 7,4 C 7,8 C 4,4 C 91 % 1019,4 hPa 0,0 l/m 2 min 0 min 216 W/m 19,3 km/h (3 Bft) 97,87 %
02.02.2022 10:08 7,5 C 7,8 C 4,4 C 91 % 1019,4 hPa 0,0 l/m 2 min 0 min 144 W/m 16,1 km/h (3 Bft) 97,87 %
02.02.2022 10:10 7,6 C 7,8 C 5,0 C 91 % 1019,4 hPa 0,0 l/m 0 min 0 min 118 W/m 16,1 km/h (3 Bft) 97,87 %
02.02.2022 10:12 7,6 C 7,8 C 5,0 C 91 % 1019,4 hPa 0,0 l/m 0 min 0 min 110 W/m 12,9 km/h (3 Bft) 100,00 %
02.02.2022 10:14 7,6 C 7,2 C 5,0 C 91 % 1019,4 hPa 0,0 l/m 0 min 0 min 97 W/m 12,9 km/h (3 Bft) 100,00 %
02.02.2022 10:16 7,6 C 7,2 C 5,0 C 91 % 1019,5 hPa 0,0 l/m 0 min 0 min 91 W/m 12,9 km/h (3 Bft) 100,00 %
02.02.2022 10:18 7,7 C 7,2 C 5,0 C 91 % 1019,6 hPa 0,0 l/m 0 min 0 min 76 W/m 12,9 km/h (3 Bft) 100,00 %
02.02.2022 10:20 7,7 C 7,2 C 4,4 C 91 % 1019,6 hPa 0,0 l/m 0 min 0 min 79 W/m 16,1 km/h (3 Bft) 100,00 %
02.02.2022 10:22 7,7 C 7,2 C 4,4 C 91 % 1019,6 hPa 0,0 l/m 0 min 0 min 88 W/m 9,7 km/h (2 Bft) 100,00 %
02.02.2022 10:24 7,7 C 7,2 C 5,0 C 91 % 1019,6 hPa 0,0 l/m 0 min 0 min 118 W/m 12,9 km/h (3 Bft) 100,00 %
02.02.2022 10:26 7,7 C 7,8 C 5,0 C 91 % 1019,6 hPa 0,0 l/m 0 min 0 min 124 W/m 19,3 km/h (3 Bft) 100,00 %
02.02.2022 10:28 7,7 C 7,8 C 5,0 C 91 % 1019,5 hPa 0,0 l/m 0 min 0 min 113 W/m 12,9 km/h (3 Bft) 97,87 %
02.02.2022 10:30 7,7 C 7,8 C 5,0 C 91 % 1019,4 hPa 0,0 l/m 0 min 0 min 100 W/m 12,9 km/h (3 Bft) 93,62 %
02.02.2022 10:32 7,7 C 7,8 C 5,0 C 91 % 1019,4 hPa 0,0 l/m 0 min 0 min 94 W/m 9,7 km/h (2 Bft) 97,87 %
02.02.2022 10:34 7,7 C 7,8 C 5,0 C 91 % 1019,4 hPa 0,0 l/m 0 min 0 min 90 W/m 16,1 km/h (3 Bft) 97,87 %
02.02.2022 10:36 7,7 C 7,8 C 5,0 C 91 % 1019,5 hPa 0,0 l/m 0 min 0 min 87 W/m 16,1 km/h (3 Bft) 97,87 %
02.02.2022 10:38 7,8 C 8,3 C 5,0 C 91 % 1019,5 hPa 0,0 l/m 0 min 0 min 122 W/m 16,1 km/h (3 Bft) 95,74 %
02.02.2022 10:40 7,8 C 8,9 C 5,0 C 91 % 1019,5 hPa 0,0 l/m 2 min 0 min 177 W/m 12,9 km/h (3 Bft) 97,83 %
02.02.2022 10:42 7,8 C 8,3 C 5,0 C 91 % 1019,5 hPa 0,0 l/m 0 min 0 min 132 W/m 19,3 km/h (3 Bft) 97,87 %
02.02.2022 10:44 7,8 C 8,3 C 5,0 C 91 % 1019,6 hPa 0,0 l/m 2 min 0 min 165 W/m 12,9 km/h (3 Bft) 97,87 %
02.02.2022 10:46 7,9 C 8,9 C 5,0 C 91 % 1019,5 hPa 0,0 l/m 2 min 0 min 212 W/m 16,1 km/h (3 Bft) 97,87 %
02.02.2022 10:48 7,9 C 8,9 C 5,6 C 91 % 1019,6 hPa 0,0 l/m 2 min 0 min 229 W/m 16,1 km/h (3 Bft) 95,74 %
02.02.2022 10:50 8,1 C 8,9 C 5,6 C 91 % 1019,6 hPa 0,0 l/m 2 min 0 min 202 W/m 16,1 km/h (3 Bft) 95,74 %
02.02.2022 10:52 8,1 C 8,3 C 5,6 C 91 % 1019,6 hPa 0,0 l/m 2 min 0 min 174 W/m 16,1 km/h (3 Bft) 97,83 %
02.02.2022 10:54 8,1 C 8,3 C 5,6 C 91 % 1019,6 hPa 0,0 l/m 0 min 0 min 125 W/m 16,1 km/h (3 Bft) 97,87 %
02.02.2022 10:56 8,2 C 8,3 C 5,6 C 91 % 1019,6 hPa 0,0 l/m 0 min 0 min 114 W/m 16,1 km/h (3 Bft) 95,74 %
02.02.2022 10:58 8,2 C 7,8 C 5,6 C 91 % 1019,7 hPa 0,0 l/m 0 min 0 min 114 W/m 16,1 km/h (3 Bft) 97,87 %
02.02.2022 11:00 8,1 C 7,8 C 5,0 C 91 % 1019,8 hPa 0,0 l/m 0 min 0 min 97 W/m 16,1 km/h (3 Bft) 97,87 %
02.02.2022 11:02 8,2 C 7,8 C 5,0 C 91 % 1019,9 hPa 0,0 l/m 0 min 0 min 93 W/m 22,5 km/h (4 Bft) 95,65 %
02.02.2022 11:04 8,1 C 7,8 C 5,0 C 91 % 1019,8 hPa 0,0 l/m 0 min 0 min 75 W/m 16,1 km/h (3 Bft) 97,87 %
02.02.2022 11:06 8,1 C 7,8 C 5,0 C 91 % 1019,8 hPa 0,0 l/m 0 min 0 min 71 W/m 16,1 km/h (3 Bft) 93,62 %
02.02.2022 11:08 8,1 C 7,8 C 5,0 C 91 % 1019,9 hPa 0,0 l/m 0 min 0 min 68 W/m 22,5 km/h (4 Bft) 97,87 %
02.02.2022 11:10 8,1 C 7,8 C 5,0 C 91 % 1019,9 hPa 0,0 l/m 0 min 0 min 62 W/m 16,1 km/h (3 Bft) 97,87 %
02.02.2022 11:12 8,1 C 7,8 C 5,0 C 91 % 1020,0 hPa 0,0 l/m 0 min 0 min 68 W/m 19,3 km/h (3 Bft) 97,87 %
02.02.2022 11:14 8,1 C 7,8 C 5,0 C 91 % 1020,0 hPa 0,0 l/m 0 min 0 min 78 W/m 9,7 km/h (2 Bft) 97,56 %
02.02.2022 11:16 8,1 C 7,8 C 5,0 C 91 % 1020,1 hPa 0,0 l/m 0 min 0 min 76 W/m 19,3 km/h (3 Bft) 88,89 %
02.02.2022 11:18 8,1 C 7,8 C 5,0 C 91 % 1020,1 hPa 0,0 l/m 0 min 0 min 71 W/m 12,9 km/h (3 Bft) 100,00 %
02.02.2022 11:20 8,1 C 7,8 C 5,0 C 91 % 1020,2 hPa 0,0 l/m 0 min 0 min 70 W/m 12,9 km/h (3 Bft) 97,87 %
02.02.2022 11:22 8,1 C 7,8 C 5,0 C 91 % 1020,2 hPa 0,0 l/m 0 min 0 min 73 W/m 19,3 km/h (3 Bft) 97,87 %
02.02.2022 11:24 8,1 C 7,8 C 5,0 C 91 % 1020,2 hPa 0,0 l/m 0 min 0 min 79 W/m 16,1 km/h (3 Bft) 95,74 %
02.02.2022 11:26 8,1 C 7,8 C 5,0 C 91 % 1020,2 hPa 0,0 l/m 0 min 0 min 85 W/m 6,4 km/h (2 Bft) 100,00 %
02.02.2022 11:28 8,1 C 7,8 C 5,0 C 91 % 1020,2 hPa 0,0 l/m 0 min 0 min 94 W/m 16,1 km/h (3 Bft) 100,00 %
02.02.2022 11:30 8,1 C 7,8 C 5,0 C 91 % 1020,2 hPa 0,0 l/m 0 min 0 min 115 W/m 12,9 km/h (3 Bft) 97,87 %
02.02.2022 11:32 8,1 C 7,8 C 5,0 C 91 % 1020,2 hPa 0,0 l/m 0 min 0 min 122 W/m 16,1 km/h (3 Bft) 100,00 %
02.02.2022 11:34 8,1 C 7,8 C 5,0 C 91 % 1020,3 hPa 0,0 l/m 0 min 0 min 122 W/m 16,1 km/h (3 Bft) 97,87 %
02.02.2022 11:36 8,1 C 7,8 C 5,0 C 91 % 1020,2 hPa 0,0 l/m 0 min 0 min 129 W/m 16,1 km/h (3 Bft) 100,00 %
02.02.2022 11:38 8,1 C 7,8 C 5,6 C 91 % 1020,3 hPa 0,0 l/m 0 min 0 min 148 W/m 12,9 km/h (3 Bft) 97,83 %
02.02.2022 11:40 8,2 C 8,3 C 5,6 C 91 % 1020,3 hPa 0,0 l/m 2 min 0 min 190 W/m 16,1 km/h (3 Bft) 95,74 %
02.02.2022 11:42 8,2 C 8,3 C 5,6 C 91 % 1020,3 hPa 0,0 l/m 0 min 0 min 166 W/m 9,7 km/h (2 Bft) 97,87 %
02.02.2022 11:44 8,2 C 8,3 C 5,6 C 91 % 1020,4 hPa 0,0 l/m 0 min 0 min 149 W/m 12,9 km/h (3 Bft) 95,74 %
02.02.2022 11:46 8,3 C 8,3 C 5,6 C 91 % 1020,4 hPa 0,0 l/m 0 min 0 min 143 W/m 19,3 km/h (3 Bft) 95,74 %
02.02.2022 11:48 8,3 C 8,3 C 5,6 C 91 % 1020,4 hPa 0,0 l/m 0 min 0 min 143 W/m 9,7 km/h (2 Bft) 97,87 %
02.02.2022 11:50 8,3 C 8,3 C 5,6 C 90 % 1020,3 hPa 0,0 l/m 0 min 0 min 131 W/m 16,1 km/h (3 Bft) 95,65 %
02.02.2022 11:52 8,3 C 8,3 C 5,6 C 90 % 1020,3 hPa 0,0 l/m 0 min 0 min 135 W/m 12,9 km/h (3 Bft) 95,74 %
02.02.2022 11:54 8,3 C 8,3 C 5,6 C 90 % 1020,3 hPa 0,0 l/m 0 min 0 min 169 W/m 9,7 km/h (2 Bft) 95,74 %
02.02.2022 11:56 8,4 C 8,9 C 5,6 C 90 % 1020,4 hPa 0,0 l/m 2 min 0 min 212 W/m 19,3 km/h (3 Bft) 95,74 %
02.02.2022 11:58 8,4 C 8,9 C 5,6 C 90 % 1020,4 hPa 0,0 l/m 0 min 0 min 160 W/m 19,3 km/h (3 Bft) 95,74 %
02.02.2022 12:00 8,4 C 8,9 C 5,6 C 90 % 1020,4 hPa 0,0 l/m 0 min 0 min 172 W/m 22,5 km/h (4 Bft) 95,74 %
02.02.2022 12:02 8,5 C 8,9 C 5,6 C 90 % 1020,4 hPa 0,0 l/m 0 min 0 min 175 W/m 22,5 km/h (4 Bft) 93,48 %
02.02.2022 12:04 8,5 C 8,9 C 5,6 C 89 % 1020,5 hPa 0,0 l/m 0 min 0 min 166 W/m 16,1 km/h (3 Bft) 95,74 %
02.02.2022 12:08 8,6 C 10,0 C 6,1 C 89 % 1020,5 hPa 0,0 l/m 4 min 0 min 192 W/m 29,0 km/h (5 Bft) 94,68 %
02.02.2022 12:10 8,7 C 10,0 C 6,1 C 89 % 1020,5 hPa 0,0 l/m 2 min 0 min 233 W/m 16,1 km/h (3 Bft) 95,74 %
02.02.2022 12:12 8,8 C 10,6 C 6,1 C 89 % 1020,4 hPa 0,0 l/m 2 min 0 min 239 W/m 22,5 km/h (4 Bft) 95,74 %
02.02.2022 12:14 8,9 C 10,0 C 6,1 C 89 % 1020,5 hPa 0,0 l/m 2 min 0 min 187 W/m 9,7 km/h (2 Bft) 95,65 %
02.02.2022 12:16 8,9 C 9,4 C 6,1 C 88 % 1020,5 hPa 0,0 l/m 0 min 0 min 132 W/m 9,7 km/h (2 Bft) 93,62 %
02.02.2022 12:18 8,9 C 9,4 C 6,1 C 88 % 1020,5 hPa 0,0 l/m 0 min 0 min 164 W/m 25,7 km/h (4 Bft) 93,62 %
02.02.2022 12:20 8,9 C 9,4 C 6,1 C 87 % 1020,5 hPa 0,0 l/m 0 min 0 min 184 W/m 25,7 km/h (4 Bft) 95,74 %
02.02.2022 12:22 8,9 C 9,4 C 6,1 C 87 % 1020,4 hPa 0,0 l/m 0 min 0 min 168 W/m 12,9 km/h (3 Bft) 97,87 %
02.02.2022 12:24 8,8 C 8,9 C 6,1 C 87 % 1020,4 hPa 0,0 l/m 0 min 0 min 133 W/m 19,3 km/h (3 Bft) 97,87 %
02.02.2022 12:26 8,8 C 8,9 C 5,6 C 87 % 1020,5 hPa 0,0 l/m 0 min 0 min 145 W/m 22,5 km/h (4 Bft) 97,83 %
02.02.2022 12:28 8,8 C 8,9 C 5,6 C 87 % 1020,4 hPa 0,0 l/m 0 min 0 min 171 W/m 19,3 km/h (3 Bft) 97,87 %
02.02.2022 12:30 8,8 C 8,9 C 5,6 C 86 % 1020,5 hPa 0,0 l/m 2 min 0 min 206 W/m 19,3 km/h (3 Bft) 97,87 %
02.02.2022 12:32 8,8 C 9,4 C 6,1 C 86 % 1020,5 hPa 0,0 l/m 2 min 0 min 189 W/m 16,1 km/h (3 Bft) 97,92 %
02.02.2022 12:34 8,8 C 9,4 C 6,1 C 86 % 1020,5 hPa 0,0 l/m 0 min 0 min 153 W/m 25,7 km/h (4 Bft) 97,87 %
02.02.2022 12:36 8,8 C 8,9 C 5,6 C 86 % 1020,4 hPa 0,0 l/m 0 min 0 min 155 W/m 12,9 km/h (3 Bft) 97,87 %
02.02.2022 12:38 8,8 C 8,9 C 6,1 C 86 % 1020,4 hPa 0,0 l/m 0 min 0 min 176 W/m 16,1 km/h (3 Bft) 100,00 %
02.02.2022 12:40 8,8 C 8,9 C 5,6 C 86 % 1020,4 hPa 0,0 l/m 0 min 0 min 147 W/m 19,3 km/h (3 Bft) 100,00 %
02.02.2022 12:42 8,8 C 8,9 C 5,6 C 86 % 1020,4 hPa 0,0 l/m 0 min 0 min 119 W/m 19,3 km/h (3 Bft) 100,00 %
02.02.2022 12:44 8,8 C 8,9 C 5,6 C 86 % 1020,4 hPa 0,0 l/m 0 min 0 min 104 W/m 19,3 km/h (3 Bft) 100,00 %
02.02.2022 12:46 8,8 C 8,3 C 5,6 C 86 % 1020,4 hPa 0,0 l/m 0 min 0 min 116 W/m 12,9 km/h (3 Bft) 100,00 %
02.02.2022 12:48 8,8 C 8,3 C 5,6 C 86 % 1020,5 hPa 0,0 l/m 0 min 0 min 138 W/m 12,9 km/h (3 Bft) 100,00 %
02.02.2022 12:50 8,8 C 10,0 C 5,6 C 86 % 1020,4 hPa 0,0 l/m 2 min 0 min 197 W/m 12,9 km/h (3 Bft) 100,00 %
02.02.2022 12:52 8,8 C 10,0 C 5,6 C 86 % 1020,5 hPa 0,0 l/m 2 min 0 min 204 W/m 16,1 km/h (3 Bft) 100,00 %
02.02.2022 12:54 8,8 C 9,4 C 5,6 C 86 % 1020,5 hPa 0,0 l/m 0 min 0 min 141 W/m 16,1 km/h (3 Bft) 100,00 %
02.02.2022 12:56 8,8 C 8,9 C 5,6 C 86 % 1020,5 hPa 0,0 l/m 0 min 0 min 137 W/m 16,1 km/h (3 Bft) 100,00 %
02.02.2022 12:58 8,8 C 9,4 C 5,6 C 86 % 1020,4 hPa 0,0 l/m 0 min 0 min 110 W/m 22,5 km/h (4 Bft) 100,00 %
02.02.2022 13:00 8,8 C 8,9 C 5,6 C 86 % 1020,4 hPa 0,0 l/m 0 min 0 min 108 W/m 16,1 km/h (3 Bft) 100,00 %
02.02.2022 13:02 8,8 C 8,9 C 5,6 C 86 % 1020,5 hPa 0,0 l/m 0 min 0 min 134 W/m 16,1 km/h (3 Bft) 100,00 %
02.02.2022 13:04 8,8 C 8,9 C 5,6 C 86 % 1020,5 hPa 0,0 l/m 0 min 0 min 105 W/m 16,1 km/h (3 Bft) 100,00 %
02.02.2022 13:06 8,8 C 8,3 C 5,6 C 86 % 1020,6 hPa 0,0 l/m 0 min 0 min 90 W/m 12,9 km/h (3 Bft) 95,65 %
02.02.2022 13:08 8,8 C 8,3 C 5,6 C 86 % 1020,6 hPa 0,0 l/m 0 min 0 min 99 W/m 12,9 km/h (3 Bft) 97,87 %
02.02.2022 13:10 8,8 C 8,9 C 5,6 C 86 % 1020,6 hPa 0,0 l/m 0 min 0 min 116 W/m 9,7 km/h (2 Bft) 97,87 %
02.02.2022 13:12 8,8 C 8,9 C 5,6 C 86 % 1020,6 hPa 0,0 l/m 0 min 0 min 114 W/m 12,9 km/h (3 Bft) 97,87 %
02.02.2022 13:14 8,8 C 8,9 C 5,6 C 86 % 1020,7 hPa 0,0 l/m 0 min 0 min 114 W/m 12,9 km/h (3 Bft) 97,87 %
02.02.2022 13:16 8,8 C 8,9 C 5,6 C 86 % 1020,7 hPa 0,0 l/m 0 min 0 min 80 W/m 22,5 km/h (4 Bft) 93,62 %
02.02.2022 13:18 8,8 C 8,9 C 5,6 C 86 % 1020,6 hPa 0,0 l/m 0 min 0 min 90 W/m 12,9 km/h (3 Bft) 97,83 %
02.02.2022 13:20 8,8 C 10,0 C 5,6 C 86 % 1020,6 hPa 0,0 l/m 2 min 0 min 218 W/m 9,7 km/h (2 Bft) 97,87 %
02.02.2022 13:22 8,8 C 9,4 C 5,6 C 86 % 1020,6 hPa 0,0 l/m 0 min 0 min 165 W/m 12,9 km/h (3 Bft) 97,87 %
02.02.2022 13:24 8,8 C 9,4 C 5,6 C 86 % 1020,6 hPa 0,0 l/m 0 min 0 min 85 W/m 12,9 km/h (3 Bft) 95,74 %
02.02.2022 13:26 8,8 C 10,0 C 5,6 C 86 % 1020,6 hPa 0,0 l/m 0 min 0 min 81 W/m 16,1 km/h (3 Bft) 97,87 %
02.02.2022 13:28 8,8 C 10,0 C 5,6 C 86 % 1020,5 hPa 0,0 l/m 0 min 0 min 78 W/m 16,1 km/h (3 Bft) 97,87 %
02.02.2022 13:30 8,8 C 9,4 C 5,6 C 86 % 1020,5 hPa 0,0 l/m 0 min 0 min 70 W/m 9,7 km/h (2 Bft) 97,83 %
02.02.2022 13:32 8,8 C 8,9 C 5,0 C 86 % 1020,4 hPa 0,0 l/m 0 min 0 min 54 W/m 12,9 km/h (3 Bft) 97,87 %
02.02.2022 13:34 8,8 C 8,9 C 5,0 C 86 % 1020,4 hPa 0,0 l/m 0 min 0 min 71 W/m 9,7 km/h (2 Bft) 97,87 %
02.02.2022 13:36 8,8 C 9,4 C 5,0 C 86 % 1020,4 hPa 0,0 l/m 0 min 0 min 104 W/m 9,7 km/h (2 Bft) 97,87 %
02.02.2022 13:38 8,8 C 11,7 C 5,0 C 87 % 1020,4 hPa 0,0 l/m 0 min 0 min 173 W/m 9,7 km/h (2 Bft) 97,87 %
02.02.2022 13:40 8,9 C 12,2 C 5,6 C 87 % 1020,4 hPa 0,0 l/m 2 min 0 min 369 W/m 16,1 km/h (3 Bft) 95,74 %
02.02.2022 13:42 8,9 C 11,7 C 5,6 C 86 % 1020,4 hPa 0,0 l/m 0 min 0 min 120 W/m 16,1 km/h (3 Bft) 95,65 %
02.02.2022 13:44 8,9 C 10,0 C 5,6 C 86 % 1020,5 hPa 0,0 l/m 0 min 0 min 63 W/m 19,3 km/h (3 Bft) 97,87 %
02.02.2022 13:46 8,9 C 9,4 C 5,6 C 85 % 1020,5 hPa 0,0 l/m 0 min 0 min 75 W/m 12,9 km/h (3 Bft) 97,87 %
02.02.2022 13:48 8,9 C 11,1 C 5,6 C 85 % 1020,6 hPa 0,0 l/m 0 min 0 min 147 W/m 22,5 km/h (4 Bft) 97,87 %
02.02.2022 13:50 9,0 C 12,2 C 5,6 C 85 % 1020,5 hPa 0,0 l/m 0 min 0 min 164 W/m 16,1 km/h (3 Bft) 97,87 %
02.02.2022 13:52 9,1 C 11,7 C 5,6 C 85 % 1020,5 hPa 0,0 l/m 2 min 0 min 181 W/m 29,0 km/h (5 Bft) 95,74 %
02.02.2022 13:54 9,1 C 11,1 C 5,6 C 84 % 1020,5 hPa 0,0 l/m 0 min 0 min 172 W/m 22,5 km/h (4 Bft) 100,00 %
02.02.2022 13:56 9,2 C 11,7 C 6,1 C 83 % 1020,5 hPa 0,0 l/m 2 min 0 min 294 W/m 16,1 km/h (3 Bft) 97,87 %
02.02.2022 13:58 9,3 C 12,2 C 6,1 C 83 % 1020,6 hPa 0,0 l/m 2 min 0 min 283 W/m 16,1 km/h (3 Bft) 97,87 %
02.02.2022 14:00 9,4 C 12,8 C 6,1 C 83 % 1020,7 hPa 0,0 l/m 2 min 0 min 222 W/m 19,3 km/h (3 Bft) 95,74 %
02.02.2022 14:02 9,6 C 13,3 C 6,1 C 83 % 1020,6 hPa 0,0 l/m 2 min 0 min 427 W/m 22,5 km/h (4 Bft) 97,87 %
02.02.2022 14:04 9,7 C 13,9 C 6,7 C 82 % 1020,6 hPa 0,0 l/m 2 min 0 min 454 W/m 25,7 km/h (4 Bft) 97,87 %
02.02.2022 14:06 9,8 C 12,2 C 6,7 C 81 % 1020,6 hPa 0,0 l/m 2 min 0 min 352 W/m 25,7 km/h (4 Bft) 97,83 %
02.02.2022 14:08 9,9 C 12,2 C 6,7 C 81 % 1020,5 hPa 0,0 l/m 2 min 0 min 230 W/m 25,7 km/h (4 Bft) 97,87 %
02.02.2022 14:10 9,9 C 12,2 C 6,7 C 80 % 1020,5 hPa 0,0 l/m 2 min 0 min 402 W/m 25,7 km/h (4 Bft) 97,87 %
02.02.2022 14:12 10,1 C 12,8 C 6,7 C 80 % 1020,5 hPa 0,0 l/m 2 min 0 min 431 W/m 19,3 km/h (3 Bft) 97,87 %
02.02.2022 14:14 10,1 C 11,7 C 6,7 C 79 % 1020,4 hPa 0,0 l/m 2 min 0 min 274 W/m 29,0 km/h (5 Bft) 93,62 %
02.02.2022 14:16 10,1 C 12,8 C 6,7 C 79 % 1020,3 hPa 0,0 l/m 2 min 0 min 250 W/m 22,5 km/h (4 Bft) 97,87 %
02.02.2022 14:18 10,2 C 12,8 C 6,7 C 79 % 1020,3 hPa 0,0 l/m 2 min 0 min 361 W/m 19,3 km/h (3 Bft) 95,65 %
02.02.2022 14:20 10,2 C 12,8 C 6,7 C 79 % 1020,2 hPa 0,0 l/m 2 min 0 min 339 W/m 16,1 km/h (3 Bft) 97,87 %
02.02.2022 14:22 10,2 C 13,3 C 6,7 C 79 % 1020,2 hPa 0,0 l/m 2 min 0 min 338 W/m 19,3 km/h (3 Bft) 95,74 %
02.02.2022 14:24 10,2 C 12,8 C 6,1 C 79 % 1020,3 hPa 0,0 l/m 2 min 0 min 352 W/m 12,9 km/h (3 Bft) 97,87 %
02.02.2022 14:26 10,2 C 12,8 C 6,1 C 78 % 1020,3 hPa 0,0 l/m 2 min 0 min 388 W/m 22,5 km/h (4 Bft) 97,87 %
02.02.2022 14:28 10,3 C 13,3 C 6,7 C 79 % 1020,3 hPa 0,0 l/m 2 min 0 min 389 W/m 12,9 km/h (3 Bft) 97,87 %
02.02.2022 14:30 10,4 C 12,8 C 6,7 C 79 % 1020,3 hPa 0,0 l/m 2 min 0 min 391 W/m 25,7 km/h (4 Bft) 97,83 %
02.02.2022 14:32 10,4 C 12,2 C 6,7 C 78 % 1020,3 hPa 0,0 l/m 2 min 0 min 320 W/m 25,7 km/h (4 Bft) 95,74 %
02.02.2022 14:34 10,4 C 11,1 C 6,7 C 78 % 1020,4 hPa 0,0 l/m 0 min 0 min 99 W/m 16,1 km/h (3 Bft) 97,87 %
02.02.2022 14:36 10,4 C 11,7 C 6,7 C 78 % 1020,4 hPa 0,0 l/m 2 min 0 min 251 W/m 22,5 km/h (4 Bft) 95,74 %
02.02.2022 14:38 10,4 C 11,7 C 6,7 C 77 % 1020,5 hPa 0,0 l/m 2 min 0 min 296 W/m 19,3 km/h (3 Bft) 95,74 %
02.02.2022 14:40 10,3 C 11,1 C 6,7 C 78 % 1020,4 hPa 0,0 l/m 2 min 0 min 184 W/m 16,1 km/h (3 Bft) 97,87 %
02.02.2022 14:42 10,2 C 11,7 C 6,1 C 77 % 1020,5 hPa 0,0 l/m 2 min 0 min 196 W/m 32,2 km/h (5 Bft) 97,83 %
02.02.2022 14:44 10,2 C 12,8 C 6,1 C 77 % 1020,5 hPa 0,0 l/m 2 min 0 min 295 W/m 19,3 km/h (3 Bft) 97,87 %
02.02.2022 14:46 10,2 C 11,7 C 6,1 C 77 % 1020,4 hPa 0,0 l/m 2 min 0 min 220 W/m 22,5 km/h (4 Bft) 97,87 %
02.02.2022 14:48 10,2 C 11,7 C 6,1 C 77 % 1020,4 hPa 0,0 l/m 2 min 0 min 208 W/m 12,9 km/h (3 Bft) 97,87 %
02.02.2022 14:50 10,1 C 12,2 C 6,1 C 78 % 1020,4 hPa 0,0 l/m 2 min 0 min 305 W/m 16,1 km/h (3 Bft) 100,00 %
02.02.2022 14:52 10,2 C 13,3 C 6,1 C 78 % 1020,4 hPa 0,0 l/m 2 min 0 min 291 W/m 19,3 km/h (3 Bft) 100,00 %
02.02.2022 14:54 10,2 C 13,3 C 6,1 C 77 % 1020,5 hPa 0,0 l/m 2 min 0 min 282 W/m 22,5 km/h (4 Bft) 100,00 %
02.02.2022 14:56 10,2 C 13,3 C 6,1 C 77 % 1020,4 hPa 0,0 l/m 2 min 0 min 281 W/m 9,7 km/h (2 Bft) 97,87 %
02.02.2022 14:58 10,2 C 12,8 C 6,1 C 77 % 1020,4 hPa 0,0 l/m 2 min 0 min 275 W/m 22,5 km/h (4 Bft) 100,00 %
02.02.2022 15:00 10,3 C 12,8 C 6,1 C 77 % 1020,4 hPa 0,0 l/m 2 min 0 min 266 W/m 16,1 km/h (3 Bft) 100,00 %
02.02.2022 15:02 10,3 C 13,3 C 6,1 C 77 % 1020,3 hPa 0,0 l/m 2 min 0 min 266 W/m 9,7 km/h (2 Bft) 100,00 %
02.02.2022 15:04 10,3 C 12,8 C 6,1 C 77 % 1020,4 hPa 0,0 l/m 2 min 0 min 264 W/m 16,1 km/h (3 Bft) 93,62 %
02.02.2022 15:06 10,3 C 12,2 C 6,1 C 77 % 1020,5 hPa 0,0 l/m 2 min 0 min 262 W/m 9,7 km/h (2 Bft) 95,65 %
02.02.2022 15:08 10,3 C 12,8 C 6,1 C 78 % 1020,4 hPa 0,0 l/m 2 min 0 min 257 W/m 9,7 km/h (2 Bft) 97,87 %
02.02.2022 15:10 10,4 C 12,8 C 6,1 C 78 % 1020,5 hPa 0,0 l/m 2 min 0 min 253 W/m 22,5 km/h (4 Bft) 97,87 %
02.02.2022 15:13 10,4 C 12,8 C 6,1 C 77 % 1020,5 hPa 0,0 l/m 3 min 0 min 253 W/m 19,3 km/h (3 Bft) 95,71 %
02.02.2022 15:14 10,4 C 12,8 C 6,1 C 77 % 1020,5 hPa 0,0 l/m 1 min 0 min 244 W/m 12,9 km/h (3 Bft) 100,00 %
02.02.2022 15:16 10,4 C 12,8 C 6,1 C 78 % 1020,6 hPa 0,0 l/m 2 min 0 min 240 W/m 12,9 km/h (3 Bft) 97,83 %
02.02.2022 15:18 10,4 C 12,8 C 6,1 C 77 % 1020,7 hPa 0,0 l/m 2 min 0 min 239 W/m 9,7 km/h (2 Bft) 97,87 %
02.02.2022 15:20 10,4 C 11,7 C 6,1 C 77 % 1020,7 hPa 0,0 l/m 2 min 0 min 245 W/m 12,9 km/h (3 Bft) 97,87 %
02.02.2022 15:22 10,4 C 11,7 C 6,1 C 77 % 1020,7 hPa 0,0 l/m 2 min 0 min 235 W/m 12,9 km/h (3 Bft) 95,74 %
02.02.2022 15:24 10,3 C 11,7 C 6,1 C 77 % 1020,7 hPa 0,0 l/m 2 min 0 min 222 W/m 12,9 km/h (3 Bft) 97,87 %
02.02.2022 15:26 10,3 C 10,6 C 6,1 C 77 % 1020,7 hPa 0,0 l/m 2 min 0 min 216 W/m 12,9 km/h (3 Bft) 97,87 %
02.02.2022 15:28 10,3 C 10,0 C 6,1 C 77 % 1020,9 hPa 0,0 l/m 2 min 0 min 208 W/m 12,9 km/h (3 Bft) 97,83 %
02.02.2022 15:30 10,3 C 10,0 C 6,1 C 77 % 1020,8 hPa 0,0 l/m 2 min 0 min 204 W/m 16,1 km/h (3 Bft) 95,74 %
02.02.2022 15:32 10,2 C 10,0 C 6,1 C 77 % 1020,9 hPa 0,0 l/m 2 min 0 min 197 W/m 16,1 km/h (3 Bft) 93,62 %
02.02.2022 15:34 10,2 C 9,4 C 6,1 C 77 % 1020,9 hPa 0,0 l/m 2 min 0 min 194 W/m 16,1 km/h (3 Bft) 95,74 %
02.02.2022 15:36 10,1 C 9,4 C 6,1 C 77 % 1021,0 hPa 0,0 l/m 2 min 0 min 171 W/m 9,7 km/h (2 Bft) 95,74 %
02.02.2022 15:38 10,1 C 9,4 C 6,1 C 77 % 1021,0 hPa 0,0 l/m 2 min 0 min 171 W/m 12,9 km/h (3 Bft) 95,74 %
02.02.2022 15:40 10,1 C 9,4 C 5,6 C 77 % 1021,0 hPa 0,0 l/m 2 min 0 min 164 W/m 16,1 km/h (3 Bft) 93,48 %
02.02.2022 15:42 10,0 C 9,4 C 5,6 C 77 % 1021,0 hPa 0,0 l/m 0 min 0 min 70 W/m 9,7 km/h (2 Bft) 93,62 %
02.02.2022 15:44 9,9 C 9,4 C 5,6 C 77 % 1021,1 hPa 0,0 l/m 0 min 0 min 60 W/m 9,7 km/h (2 Bft) 95,74 %
02.02.2022 15:46 9,8 C 9,4 C 5,6 C 77 % 1021,2 hPa 0,0 l/m 2 min 0 min 129 W/m 16,1 km/h (3 Bft) 93,62 %
02.02.2022 15:48 9,8 C 9,4 C 5,6 C 77 % 1021,2 hPa 0,0 l/m 2 min 0 min 120 W/m 9,7 km/h (2 Bft) 95,74 %
02.02.2022 15:50 9,8 C 9,4 C 5,6 C 78 % 1021,2 hPa 0,0 l/m 0 min 0 min 72 W/m 9,7 km/h (2 Bft) 95,74 %
02.02.2022 15:52 9,7 C 9,4 C 5,6 C 78 % 1021,2 hPa 0,0 l/m 2 min 0 min 101 W/m 16,1 km/h (3 Bft) 95,65 %
02.02.2022 15:54 9,7 C 9,4 C 5,6 C 78 % 1021,2 hPa 0,0 l/m 2 min 0 min 128 W/m 12,9 km/h (3 Bft) 91,49 %
02.02.2022 15:56 9,7 C 9,4 C 5,6 C 79 % 1021,1 hPa 0,0 l/m 0 min 0 min 83 W/m 9,7 km/h (2 Bft) 97,87 %
02.02.2022 15:58 9,6 C 9,4 C 5,6 C 79 % 1021,1 hPa 0,0 l/m 0 min 0 min 75 W/m 12,9 km/h (3 Bft) 93,62 %
02.02.2022 16:00 9,6 C 9,4 C 5,6 C 79 % 1021,2 hPa 0,0 l/m 0 min 0 min 61 W/m 9,7 km/h (2 Bft) 95,74 %
02.02.2022 16:02 9,6 C 9,4 C 5,6 C 79 % 1021,2 hPa 0,0 l/m 0 min 0 min 62 W/m 12,9 km/h (3 Bft) 97,87 %
02.02.2022 16:04 9,6 C 9,4 C 5,6 C 80 % 1021,2 hPa 0,0 l/m 0 min 0 min 61 W/m 16,1 km/h (3 Bft) 97,83 %
02.02.2022 16:06 9,6 C 9,4 C 5,6 C 80 % 1021,2 hPa 0,0 l/m 0 min 0 min 70 W/m 9,7 km/h (2 Bft) 97,87 %
02.02.2022 16:08 9,6 C 9,4 C 5,6 C 80 % 1021,2 hPa 0,0 l/m 0 min 0 min 72 W/m 16,1 km/h (3 Bft) 97,87 %
02.02.2022 16:10 9,5 C 9,4 C 5,6 C 80 % 1021,1 hPa 0,0 l/m 0 min 0 min 78 W/m 9,7 km/h (2 Bft) 97,87 %
02.02.2022 16:12 9,5 C 9,4 C 5,6 C 80 % 1021,1 hPa 0,0 l/m 0 min 0 min 58 W/m 9,7 km/h (2 Bft) 100,00 %
02.02.2022 16:14 9,5 C 8,9 C 5,6 C 81 % 1021,1 hPa 0,0 l/m 0 min 0 min 50 W/m 6,4 km/h (2 Bft) 100,00 %
02.02.2022 16:16 9,5 C 8,9 C 5,6 C 81 % 1021,1 hPa 0,0 l/m 0 min 0 min 53 W/m 9,7 km/h (2 Bft) 97,83 %
02.02.2022 16:18 9,5 C 8,9 C 5,6 C 81 % 1021,1 hPa 0,0 l/m 0 min 0 min 54 W/m 6,4 km/h (2 Bft) 95,74 %
02.02.2022 16:20 9,5 C 8,9 C 5,6 C 81 % 1021,1 hPa 0,0 l/m 0 min 0 min 50 W/m 6,4 km/h (2 Bft) 100,00 %
02.02.2022 16:22 9,5 C 8,9 C 5,6 C 81 % 1021,1 hPa 0,0 l/m 0 min 0 min 49 W/m 9,7 km/h (2 Bft) 100,00 %
02.02.2022 16:24 9,5 C 8,9 C 5,6 C 81 % 1021,1 hPa 0,0 l/m 0 min 0 min 46 W/m 6,4 km/h (2 Bft) 100,00 %
02.02.2022 16:26 9,5 C 8,9 C 5,6 C 81 % 1021,1 hPa 0,0 l/m 0 min 0 min 41 W/m 6,4 km/h (2 Bft) 100,00 %
02.02.2022 16:28 9,5 C 8,9 C 5,6 C 81 % 1021,1 hPa 0,0 l/m 0 min 0 min 39 W/m 6,4 km/h (2 Bft) 100,00 %
02.02.2022 16:30 9,5 C 8,9 C 5,6 C 81 % 1021,2 hPa 0,0 l/m 0 min 0 min 38 W/m 9,7 km/h (2 Bft) 97,87 %
02.02.2022 16:32 9,4 C 8,9 C 5,6 C 81 % 1021,2 hPa 0,0 l/m 0 min 0 min 37 W/m 12,9 km/h (3 Bft) 100,00 %
02.02.2022 16:34 9,4 C 8,9 C 5,6 C 81 % 1021,3 hPa 0,0 l/m 0 min 0 min 35 W/m 12,9 km/h (3 Bft) 100,00 %
02.02.2022 16:36 9,4 C 8,9 C 5,6 C 81 % 1021,2 hPa 0,0 l/m 0 min 0 min 33 W/m 12,9 km/h (3 Bft) 100,00 %
02.02.2022 16:38 9,4 C 8,9 C 5,0 C 81 % 1021,2 hPa 0,0 l/m 0 min 0 min 32 W/m 6,4 km/h (2 Bft) 100,00 %
02.02.2022 16:40 9,3 C 8,3 C 5,0 C 81 % 1021,3 hPa 0,0 l/m 0 min 0 min 28 W/m 6,4 km/h (2 Bft) 100,00 %
02.02.2022 16:42 9,3 C 8,3 C 5,0 C 81 % 1021,2 hPa 0,0 l/m 0 min 0 min 27 W/m 12,9 km/h (3 Bft) 100,00 %
02.02.2022 16:44 9,2 C 8,3 C 5,0 C 82 % 1021,3 hPa 0,0 l/m 0 min 0 min 27 W/m 12,9 km/h (3 Bft) 97,87 %
02.02.2022 16:46 9,2 C 8,3 C 5,0 C 82 % 1021,3 hPa 0,0 l/m 0 min 0 min 26 W/m 12,9 km/h (3 Bft) 97,87 %
02.02.2022 16:48 9,2 C 8,3 C 5,0 C 82 % 1021,3 hPa 0,0 l/m 0 min 0 min 26 W/m 9,7 km/h (2 Bft) 100,00 %
02.02.2022 16:50 9,1 C 8,3 C 5,0 C 82 % 1021,3 hPa 0,0 l/m 0 min 0 min 22 W/m 6,4 km/h (2 Bft) 100,00 %
02.02.2022 16:52 9,1 C 8,3 C 5,0 C 82 % 1021,3 hPa 0,0 l/m 0 min 0 min 17 W/m 6,4 km/h (2 Bft) 97,87 %
02.02.2022 16:54 9,0 C 7,8 C 5,0 C 82 % 1021,3 hPa 0,0 l/m 0 min 0 min 16 W/m 9,7 km/h (2 Bft) 97,83 %
02.02.2022 16:56 8,9 C 7,8 C 4,4 C 83 % 1021,3 hPa 0,0 l/m 0 min 0 min 16 W/m 6,4 km/h (2 Bft) 96,61 %
02.02.2022 16:58 8,9 C 7,8 C 4,4 C 83 % 1021,3 hPa 0,0 l/m 0 min 0 min 15 W/m 3,2 km/h (1 Bft) 97,87 %
02.02.2022 17:00 8,9 C 7,8 C 4,4 C 83 % 1021,3 hPa 0,0 l/m 0 min 0 min 14 W/m 3,2 km/h (1 Bft) 97,87 %
02.02.2022 17:02 8,8 C 7,8 C 4,4 C 83 % 1021,3 hPa 0,0 l/m 0 min 0 min 14 W/m 6,4 km/h (2 Bft) 97,14 %
02.02.2022 17:04 8,8 C 7,8 C 4,4 C 83 % 1021,4 hPa 0,0 l/m 0 min 0 min 12 W/m 3,2 km/h (1 Bft) 97,87 %
02.02.2022 17:06 8,7 C 7,2 C 4,4 C 83 % 1021,4 hPa 0,0 l/m 0 min 0 min 12 W/m 3,2 km/h (1 Bft) 97,83 %
02.02.2022 17:08 8,7 C 7,2 C 4,4 C 84 % 1021,4 hPa 0,0 l/m 0 min 0 min 11 W/m 3,2 km/h (1 Bft) 98,31 %
02.02.2022 17:10 8,6 C 7,2 C 3,9 C 84 % 1021,4 hPa 0,0 l/m 0 min 0 min 11 W/m 3,2 km/h (1 Bft) 97,87 %
02.02.2022 17:12 8,6 C 7,2 C 3,9 C 84 % 1021,4 hPa 0,0 l/m 0 min 0 min 9 W/m 6,4 km/h (2 Bft) 95,74 %
02.02.2022 17:14 8,4 C 7,2 C 3,9 C 84 % 1021,4 hPa 0,0 l/m 0 min 0 min 9 W/m 6,4 km/h (2 Bft) 97,83 %
02.02.2022 17:16 8,4 C 7,2 C 3,9 C 84 % 1021,4 hPa 0,0 l/m 0 min 0 min 8 W/m 3,2 km/h (1 Bft) 97,87 %
02.02.2022 17:18 8,3 C 7,2 C 3,9 C 85 % 1021,4 hPa 0,0 l/m 0 min 0 min 7 W/m 6,4 km/h (2 Bft) 97,87 %
02.02.2022 17:20 8,3 C 7,2 C 3,9 C 85 % 1021,4 hPa 0,0 l/m 0 min 0 min 6 W/m 6,4 km/h (2 Bft) 97,87 %
02.02.2022 17:22 8,3 C 7,2 C 3,9 C 85 % 1021,4 hPa 0,0 l/m 0 min 0 min 5 W/m 3,2 km/h (1 Bft) 100,00 %
02.02.2022 17:24 8,2 C 6,7 C 3,9 C 85 % 1021,3 hPa 0,0 l/m 0 min 0 min 5 W/m 3,2 km/h (1 Bft) 97,87 %
02.02.2022 17:26 8,2 C 6,7 C 3,9 C 85 % 1021,3 hPa 0,0 l/m 0 min 0 min 2 W/m 3,2 km/h (1 Bft) 100,00 %
02.02.2022 17:28 8,1 C 6,7 C 3,3 C 85 % 1021,3 hPa 0,0 l/m 0 min 0 min 0 W/m 3,2 km/h (1 Bft) 100,00 %
02.02.2022 17:30 8,1 C 6,7 C 3,3 C 85 % 1021,4 hPa 0,0 l/m 0 min 0 min 0 W/m 3,2 km/h (1 Bft) 100,00 %
02.02.2022 17:32 8,1 C 6,7 C 3,3 C 86 % 1021,3 hPa 0,0 l/m 0 min 0 min 0 W/m 3,2 km/h (1 Bft) 100,00 %
02.02.2022 17:34 8,0 C 6,7 C 3,3 C 86 % 1021,3 hPa 0,0 l/m 0 min 0 min 0 W/m 3,2 km/h (1 Bft) 95,74 %
02.02.2022 17:36 7,9 C 6,7 C 3,3 C 86 % 1021,3 hPa 0,0 l/m 0 min 0 min 0 W/m 3,2 km/h (1 Bft) 100,00 %
02.02.2022 17:38 7,9 C 6,7 C 3,3 C 86 % 1021,4 hPa 0,0 l/m 0 min 0 min 0 W/m 3,2 km/h (1 Bft) 95,65 %
02.02.2022 17:40 7,8 C 6,7 C 3,3 C 86 % 1021,4 hPa 0,0 l/m 0 min 0 min 0 W/m 3,2 km/h (1 Bft) 97,87 %
02.02.2022 17:42 7,8 C 6,1 C 2,8 C 86 % 1021,3 hPa 0,0 l/m 0 min 0 min 0 W/m 3,2 km/h (1 Bft) 95,74 %
02.02.2022 17:44 7,8 C 6,7 C 3,3 C 86 % 1021,3 hPa 0,0 l/m 0 min 0 min 0 W/m 3,2 km/h (1 Bft) 97,87 %
02.02.2022 17:46 7,8 C 6,7 C 3,3 C 87 % 1021,3 hPa 0,0 l/m 0 min 0 min 0 W/m 3,2 km/h (1 Bft) 95,74 %
02.02.2022 17:48 7,7 C 6,7 C 3,3 C 87 % 1021,2 hPa 0,0 l/m 0 min 0 min 0 W/m 3,2 km/h (1 Bft) 97,87 %
02.02.2022 17:50 7,7 C 6,7 C 3,3 C 87 % 1021,2 hPa 0,0 l/m 0 min 0 min 0 W/m 3,2 km/h (1 Bft) 97,83 %
02.02.2022 17:52 7,7 C 6,7 C 3,3 C 87 % 1021,2 hPa 0,0 l/m 0 min 0 min 0 W/m 3,2 km/h (1 Bft) 97,87 %
02.02.2022 17:54 7,7 C 6,7 C 3,3 C 87 % 1021,2 hPa 0,0 l/m 0 min 0 min 0 W/m 3,2 km/h (1 Bft) 95,74 %
02.02.2022 17:56 7,7 C 6,7 C 3,3 C 87 % 1021,2 hPa 0,0 l/m 0 min 0 min 0 W/m 3,2 km/h (1 Bft) 95,74 %
02.02.2022 17:58 7,7 C 6,7 C 3,3 C 87 % 1021,2 hPa 0,0 l/m 0 min 0 min 0 W/m 3,2 km/h (1 Bft) 95,74 %
02.02.2022 18:00 7,6 C 6,1 C 2,8 C 87 % 1021,3 hPa 0,0 l/m 0 min 0 min 0 W/m 0,0 km/h (0 Bft) 97,87 %
02.02.2022 18:02 7,6 C 6,1 C 2,8 C 87 % 1021,3 hPa 0,0 l/m 0 min 0 min 0 W/m 3,2 km/h (1 Bft) 97,83 %
02.02.2022 18:04 7,6 C 6,1 C 2,8 C 87 % 1021,3 hPa 0,0 l/m 0 min 0 min 0 W/m 3,2 km/h (1 Bft) 95,74 %
02.02.2022 18:06 7,6 C 6,1 C 2,8 C 88 % 1021,4 hPa 0,0 l/m 0 min 0 min 0 W/m 3,2 km/h (1 Bft) 95,74 %
02.02.2022 18:08 7,6 C 6,1 C 3,3 C 88 % 1021,4 hPa 0,0 l/m 0 min 0 min 0 W/m 6,4 km/h (2 Bft) 95,74 %
02.02.2022 18:10 7,5 C 6,1 C 3,3 C 88 % 1021,5 hPa 0,0 l/m 0 min 0 min 0 W/m 3,2 km/h (1 Bft) 100,00 %
02.02.2022 18:12 7,5 C 6,1 C 2,8 C 88 % 1021,5 hPa 0,0 l/m 0 min 0 min 0 W/m 0,0 km/h (0 Bft) 95,74 %
02.02.2022 18:14 7,5 C 6,1 C 2,8 C 88 % 1021,5 hPa 0,0 l/m 0 min 0 min 0 W/m 0,0 km/h (0 Bft) 97,83 %
02.02.2022 18:16 7,4 C 6,1 C 2,8 C 88 % 1021,5 hPa 0,0 l/m 0 min 0 min 0 W/m 0,0 km/h (0 Bft) 97,87 %
02.02.2022 18:18 7,4 C 6,1 C 2,8 C 88 % 1021,5 hPa 0,0 l/m 0 min 0 min 0 W/m 3,2 km/h (1 Bft) 95,74 %
02.02.2022 18:20 7,4 C 6,1 C 2,8 C 88 % 1021,5 hPa 0,0 l/m 0 min 0 min 0 W/m 0,0 km/h (0 Bft) 97,87 %
02.02.2022 18:22 7,4 C 6,1 C 2,8 C 88 % 1021,5 hPa 0,0 l/m 0 min 0 min 0 W/m 0,0 km/h (0 Bft) 97,87 %
02.02.2022 18:24 7,3 C 6,1 C 2,2 C 88 % 1021,6 hPa 0,0 l/m 0 min 0 min 0 W/m 3,2 km/h (1 Bft) 97,87 %
02.02.2022 18:26 7,3 C 6,1 C 2,8 C 88 % 1021,6 hPa 0,0 l/m 0 min 0 min 0 W/m 3,2 km/h (1 Bft) 95,65 %
02.02.2022 18:28 7,3 C 6,1 C 2,2 C 88 % 1021,6 hPa 0,0 l/m 0 min 0 min 0 W/m 3,2 km/h (1 Bft) 97,87 %
02.02.2022 18:30 7,3 C 5,6 C 2,2 C 88 % 1021,6 hPa 0,0 l/m 0 min 0 min 0 W/m 0,0 km/h (0 Bft) 95,74 %
02.02.2022 18:32 7,2 C 5,6 C 2,2 C 88 % 1021,6 hPa 0,0 l/m 0 min 0 min 0 W/m 3,2 km/h (1 Bft) 97,87 %
02.02.2022 18:34 7,2 C 5,6 C 2,2 C 88 % 1021,6 hPa 0,0 l/m 0 min 0 min 0 W/m 0,0 km/h (0 Bft) 97,87 %
02.02.2022 18:36 7,2 C 5,6 C 2,2 C 89 % 1021,5 hPa 0,0 l/m 0 min 0 min 0 W/m 0,0 km/h (0 Bft) 93,62 %
02.02.2022 18:38 7,2 C 5,6 C 2,2 C 89 % 1021,5 hPa 0,0 l/m 0 min 0 min 0 W/m 0,0 km/h (0 Bft) 97,83 %
02.02.2022 18:40 7,2 C 5,6 C 2,2 C 89 % 1021,6 hPa 0,0 l/m 0 min 0 min 0 W/m 0,0 km/h (0 Bft) 97,87 %
02.02.2022 18:42 7,1 C 5,6 C 1,7 C 89 % 1021,6 hPa 0,0 l/m 0 min 0 min 0 W/m 0,0 km/h (0 Bft) 95,74 %
02.02.2022 18:44 7,1 C 5,6 C 1,7 C 89 % 1021,7 hPa 0,0 l/m 0 min 0 min 0 W/m 0,0 km/h (0 Bft) 95,74 %
02.02.2022 18:46 7,1 C 5,0 C 1,7 C 89 % 1021,7 hPa 0,0 l/m 0 min 0 min 0 W/m 0,0 km/h (0 Bft) 95,74 %
02.02.2022 18:48 7,1 C 5,0 C 1,7 C 89 % 1021,7 hPa 0,0 l/m 0 min 0 min 0 W/m 0,0 km/h (0 Bft) 95,74 %
02.02.2022 18:50 7,0 C 5,0 C 1,7 C 89 % 1021,8 hPa 0,0 l/m 0 min 0 min 0 W/m 0,0 km/h (0 Bft) 95,65 %
02.02.2022 18:52 7,0 C 5,0 C 1,7 C 89 % 1021,8 hPa 0,0 l/m 0 min 0 min 0 W/m 0,0 km/h (0 Bft) 95,74 %
02.02.2022 18:54 6,9 C 5,0 C 1,7 C 89 % 1021,8 hPa 0,0 l/m 0 min 0 min 0 W/m 0,0 km/h (0 Bft) 89,36 %
02.02.2022 18:56 6,9 C 5,0 C 1,7 C 89 % 1021,8 hPa 0,0 l/m 0 min 0 min 0 W/m 0,0 km/h (0 Bft) 95,74 %
02.02.2022 18:58 6,8 C 5,0 C 1,7 C 89 % 1021,7 hPa 0,0 l/m 0 min 0 min 0 W/m 0,0 km/h (0 Bft) 95,74 %
02.02.2022 19:00 6,8 C 5,6 C 1,7 C 89 % 1021,8 hPa 0,0 l/m 0 min 0 min 0 W/m 0,0 km/h (0 Bft) 95,74 %
02.02.2022 19:04 6,8 C 5,6 C 1,7 C 89 % 1021,8 hPa 0,0 l/m 0 min 0 min 0 W/m 0,0 km/h (0 Bft) 97,62 %
02.02.2022 19:06 6,8 C 5,6 C 1,7 C 89 % 1021,8 hPa 0,0 l/m 0 min 0 min 0 W/m 0,0 km/h (0 Bft) 95,74 %
02.02.2022 19:08 6,8 C 5,6 C 1,7 C 89 % 1021,8 hPa 0,0 l/m 0 min 0 min 0 W/m 0,0 km/h (0 Bft) 95,74 %
02.02.2022 19:10 6,8 C 5,6 C 2,2 C 90 % 1021,8 hPa 0,0 l/m 0 min 0 min 0 W/m 0,0 km/h (0 Bft) 97,87 %
02.02.2022 19:12 6,7 C 5,6 C 2,2 C 90 % 1021,7 hPa 0,0 l/m 0 min 0 min 0 W/m 0,0 km/h (0 Bft) 100,00 %
02.02.2022 19:14 6,7 C 5,6 C 2,2 C 90 % 1021,8 hPa 0,0 l/m 0 min 0 min 0 W/m 0,0 km/h (0 Bft) 100,00 %
02.02.2022 19:16 6,7 C 5,6 C 2,2 C 90 % 1021,8 hPa 0,0 l/m 0 min 0 min 0 W/m 0,0 km/h (0 Bft) 100,00 %
02.02.2022 19:18 6,7 C 5,6 C 2,2 C 90 % 1021,8 hPa 0,0 l/m 0 min 0 min 0 W/m 0,0 km/h (0 Bft) 100,00 %
02.02.2022 19:20 6,7 C 5,6 C 2,2 C 90 % 1021,8 hPa 0,0 l/m 0 min 0 min 0 W/m 0,0 km/h (0 Bft) 100,00 %
02.02.2022 19:22 6,7 C 5,6 C 2,2 C 90 % 1021,8 hPa 0,0 l/m 0 min 0 min 0 W/m 0,0 km/h (0 Bft) 100,00 %
02.02.2022 19:24 6,7 C 6,1 C 2,2 C 90 % 1021,8 hPa 0,0 l/m 0 min 0 min 0 W/m 0,0 km/h (0 Bft) 97,87 %
02.02.2022 19:26 6,7 C 6,1 C 2,2 C 90 % 1021,9 hPa 0,0 l/m 0 min 0 min 0 W/m 0,0 km/h (0 Bft) 100,00 %
02.02.2022 19:28 6,7 C 6,1 C 2,2 C 90 % 1021,9 hPa 0,0 l/m 0 min 0 min 0 W/m 0,0 km/h (0 Bft) 100,00 %
02.02.2022 19:30 6,7 C 6,1 C 2,2 C 91 % 1021,9 hPa 0,0 l/m 0 min 0 min 0 W/m 3,2 km/h (1 Bft) 100,00 %
02.02.2022 19:32 6,7 C 6,1 C 2,8 C 91 % 1022,0 hPa 0,0 l/m 0 min 0 min 0 W/m 3,2 km/h (1 Bft) 97,87 %
02.02.2022 19:34 6,7 C 6,1 C 2,8 C 91 % 1021,9 hPa 0,0 l/m 0 min 0 min 0 W/m 6,4 km/h (2 Bft) 100,00 %
02.02.2022 19:36 6,7 C 6,1 C 2,8 C 91 % 1022,0 hPa 0,0 l/m 0 min 0 min 0 W/m 3,2 km/h (1 Bft) 100,00 %
02.02.2022 19:38 6,8 C 6,1 C 2,8 C 91 % 1022,0 hPa 0,0 l/m 0 min 0 min 0 W/m 3,2 km/h (1 Bft) 97,87 %
02.02.2022 19:40 6,8 C 6,1 C 2,8 C 91 % 1022,0 hPa 0,0 l/m 0 min 0 min 0 W/m 3,2 km/h (1 Bft) 95,74 %
02.02.2022 19:42 6,8 C 6,1 C 2,8 C 91 % 1022,0 hPa 0,0 l/m 0 min 0 min 0 W/m 3,2 km/h (1 Bft) 97,87 %
02.02.2022 19:44 6,8 C 6,1 C 2,8 C 91 % 1022,0 hPa 0,0 l/m 0 min 0 min 0 W/m 3,2 km/h (1 Bft) 97,87 %
02.02.2022 19:46 6,9 C 6,7 C 2,8 C 92 % 1022,0 hPa 0,0 l/m 0 min 0 min 0 W/m 3,2 km/h (1 Bft) 97,87 %
02.02.2022 19:48 6,9 C 6,7 C 3,3 C 92 % 1022,0 hPa 0,0 l/m 0 min 0 min 0 W/m 0,0 km/h (0 Bft) 97,83 %
02.02.2022 19:50 6,9 C 6,7 C 3,3 C 92 % 1022,0 hPa 0,0 l/m 0 min 0 min 0 W/m 3,2 km/h (1 Bft) 97,87 %
02.02.2022 19:52 7,0 C 6,7 C 3,3 C 92 % 1022,0 hPa 0,0 l/m 0 min 0 min 0 W/m 3,2 km/h (1 Bft) 97,87 %
02.02.2022 19:54 7,1 C 6,7 C 3,3 C 92 % 1022,0 hPa 0,0 l/m 0 min 0 min 0 W/m 3,2 km/h (1 Bft) 97,87 %
02.02.2022 19:56 7,1 C 6,7 C 3,3 C 93 % 1022,0 hPa 0,0 l/m 0 min 0 min 0 W/m 0,0 km/h (0 Bft) 95,74 %
02.02.2022 19:58 7,1 C 6,7 C 3,3 C 93 % 1022,0 hPa 0,0 l/m 0 min 0 min 0 W/m 3,2 km/h (1 Bft) 97,87 %
02.02.2022 20:00 7,2 C 6,7 C 3,3 C 93 % 1021,9 hPa 0,0 l/m 0 min 0 min 0 W/m 3,2 km/h (1 Bft) 97,83 %
02.02.2022 20:02 7,2 C 6,7 C 3,3 C 93 % 1022,0 hPa 0,0 l/m 0 min 0 min 0 W/m 6,4 km/h (2 Bft) 97,67 %
02.02.2022 20:04 7,2 C 6,7 C 3,3 C 93 % 1022,0 hPa 0,0 l/m 0 min 0 min 0 W/m 3,2 km/h (1 Bft) 93,62 %
02.02.2022 20:06 7,2 C 6,7 C 3,3 C 93 % 1022,0 hPa 0,0 l/m 0 min 0 min 0 W/m 6,4 km/h (2 Bft) 97,87 %
02.02.2022 20:08 7,2 C 6,7 C 3,3 C 93 % 1022,0 hPa 0,0 l/m 0 min 0 min 0 W/m 6,4 km/h (2 Bft) 95,74 %
02.02.2022 20:10 7,3 C 6,7 C 3,3 C 93 % 1022,0 hPa 0,0 l/m 0 min 0 min 0 W/m 6,4 km/h (2 Bft) 95,74 %
02.02.2022 20:12 7,3 C 6,7 C 3,3 C 93 % 1022,0 hPa 0,0 l/m 0 min 0 min 0 W/m 3,2 km/h (1 Bft) 97,87 %
02.02.2022 20:14 7,3 C 6,7 C 3,3 C 93 % 1022,0 hPa 0,0 l/m 0 min 0 min 0 W/m 6,4 km/h (2 Bft) 97,83 %
02.02.2022 20:16 7,3 C 6,7 C 3,9 C 93 % 1022,0 hPa 0,0 l/m 0 min 0 min 0 W/m 6,4 km/h (2 Bft) 100,00 %
02.02.2022 20:18 7,3 C 6,7 C 3,9 C 93 % 1022,1 hPa 0,0 l/m 0 min 0 min 0 W/m 3,2 km/h (1 Bft) 100,00 %
02.02.2022 20:20 7,4 C 6,7 C 3,9 C 93 % 1022,0 hPa 0,0 l/m 0 min 0 min 0 W/m 3,2 km/h (1 Bft) 97,87 %
02.02.2022 20:22 7,4 C 6,7 C 3,9 C 94 % 1022,0 hPa 0,0 l/m 0 min 0 min 0 W/m 3,2 km/h (1 Bft) 100,00 %
02.02.2022 20:24 7,5 C 7,2 C 3,9 C 94 % 1022,0 hPa 0,0 l/m 0 min 0 min 0 W/m 9,7 km/h (2 Bft) 100,00 %
02.02.2022 20:26 7,6 C 7,2 C 3,9 C 94 % 1021,9 hPa 0,0 l/m 0 min 0 min 0 W/m 6,4 km/h (2 Bft) 100,00 %
02.02.2022 20:28 7,6 C 7,2 C 3,9 C 94 % 1021,9 hPa 0,0 l/m 0 min 0 min 0 W/m 6,4 km/h (2 Bft) 100,00 %
02.02.2022 20:30 7,6 C 7,2 C 3,9 C 94 % 1021,9 hPa 0,0 l/m 0 min 0 min 0 W/m 3,2 km/h (1 Bft) 98,00 %
02.02.2022 20:32 7,6 C 7,2 C 3,9 C 94 % 1021,9 hPa 0,0 l/m 0 min 0 min 0 W/m 3,2 km/h (1 Bft) 97,96 %
02.02.2022 20:34 7,6 C 7,2 C 3,9 C 94 % 1021,8 hPa 0,0 l/m 0 min 0 min 0 W/m 0,0 km/h (0 Bft) 97,83 %
02.02.2022 20:36 7,6 C 7,2 C 3,9 C 94 % 1021,8 hPa 0,0 l/m 0 min 0 min 0 W/m 0,0 km/h (0 Bft) 97,87 %
02.02.2022 20:38 7,6 C 7,2 C 3,9 C 94 % 1021,8 hPa 0,0 l/m 0 min 0 min 0 W/m 0,0 km/h (0 Bft) 97,87 %
02.02.2022 20:40 7,7 C 7,2 C 3,9 C 94 % 1021,9 hPa 0,0 l/m 0 min 0 min 0 W/m 3,2 km/h (1 Bft) 97,87 %
02.02.2022 20:42 7,7 C 7,2 C 3,9 C 94 % 1021,9 hPa 0,0 l/m 0 min 0 min 0 W/m 6,4 km/h (2 Bft) 97,87 %
02.02.2022 20:44 7,7 C 7,2 C 3,9 C 94 % 1021,9 hPa 0,0 l/m 0 min 0 min 0 W/m 3,2 km/h (1 Bft) 97,87 %
02.02.2022 20:46 7,7 C 7,2 C 3,9 C 94 % 1021,9 hPa 0,0 l/m 0 min 0 min 0 W/m 3,2 km/h (1 Bft) 97,83 %
02.02.2022 20:48 7,7 C 7,2 C 3,9 C 94 % 1021,9 hPa 0,0 l/m 0 min 0 min 0 W/m 3,2 km/h (1 Bft) 95,74 %
02.02.2022 20:50 7,7 C 7,2 C 3,9 C 94 % 1021,9 hPa 0,0 l/m 0 min 0 min 0 W/m 3,2 km/h (1 Bft) 97,87 %
02.02.2022 20:52 7,7 C 7,2 C 3,9 C 94 % 1021,8 hPa 0,0 l/m 0 min 0 min 0 W/m 3,2 km/h (1 Bft) 95,74 %
02.02.2022 20:54 7,7 C 7,2 C 3,9 C 94 % 1021,9 hPa 0,0 l/m 0 min 0 min 0 W/m 3,2 km/h (1 Bft) 97,14 %
02.02.2022 20:56 7,7 C 7,2 C 3,9 C 94 % 1021,8 hPa 0,0 l/m 0 min 0 min 0 W/m 0,0 km/h (0 Bft) 96,61 %
02.02.2022 20:58 7,7 C 7,2 C 3,9 C 94 % 1021,9 hPa 0,0 l/m 0 min 0 min 0 W/m 3,2 km/h (1 Bft) 97,83 %
02.02.2022 21:00 7,7 C 7,2 C 3,9 C 94 % 1021,9 hPa 0,0 l/m 0 min 0 min 0 W/m 3,2 km/h (1 Bft) 97,87 %
02.02.2022 21:02 7,7 C 7,2 C 3,9 C 94 % 1021,9 hPa 0,0 l/m 0 min 0 min 0 W/m 3,2 km/h (1 Bft) 97,87 %
02.02.2022 21:04 7,7 C 7,2 C 3,9 C 94 % 1021,9 hPa 0,0 l/m 0 min 0 min 0 W/m 3,2 km/h (1 Bft) 97,87 %
02.02.2022 21:06 7,8 C 7,2 C 3,9 C 94 % 1021,8 hPa 0,0 l/m 0 min 0 min 0 W/m 6,4 km/h (2 Bft) 97,87 %
02.02.2022 21:08 7,8 C 7,2 C 3,9 C 94 % 1021,8 hPa 0,0 l/m 0 min 0 min 0 W/m 3,2 km/h (1 Bft) 100,00 %
02.02.2022 21:10 7,8 C 7,2 C 3,9 C 94 % 1021,8 hPa 0,0 l/m 0 min 0 min 0 W/m 3,2 km/h (1 Bft) 100,00 %
02.02.2022 21:12 7,8 C 7,2 C 3,9 C 94 % 1021,9 hPa 0,0 l/m 0 min 0 min 0 W/m 3,2 km/h (1 Bft) 100,00 %
02.02.2022 21:14 7,8 C 7,2 C 3,9 C 95 % 1021,9 hPa 0,0 l/m 0 min 0 min 0 W/m 3,2 km/h (1 Bft) 100,00 %
02.02.2022 21:16 7,8 C 7,2 C 3,9 C 95 % 1022,0 hPa 0,0 l/m 0 min 0 min 0 W/m 3,2 km/h (1 Bft) 98,31 %
02.02.2022 21:18 7,8 C 7,2 C 3,9 C 95 % 1022,0 hPa 0,0 l/m 0 min 0 min 0 W/m 3,2 km/h (1 Bft) 100,00 %
02.02.2022 21:20 7,8 C 7,2 C 3,9 C 95 % 1022,0 hPa 0,0 l/m 0 min 0 min 0 W/m 3,2 km/h (1 Bft) 100,00 %
02.02.2022 21:22 7,8 C 7,2 C 3,9 C 95 % 1021,9 hPa 0,0 l/m 0 min 0 min 0 W/m 3,2 km/h (1 Bft) 97,83 %
02.02.2022 21:24 7,8 C 7,2 C 3,9 C 95 % 1021,9 hPa 0,0 l/m 0 min 0 min 0 W/m 3,2 km/h (1 Bft) 97,87 %
02.02.2022 21:26 7,8 C 7,2 C 3,9 C 95 % 1021,9 hPa 0,0 l/m 0 min 0 min 0 W/m 6,4 km/h (2 Bft) 97,14 %
02.02.2022 21:28 7,8 C 7,2 C 3,9 C 95 % 1021,8 hPa 0,0 l/m 0 min 0 min 0 W/m 3,2 km/h (1 Bft) 96,61 %
02.02.2022 21:30 7,8 C 7,2 C 4,4 C 95 % 1021,8 hPa 0,0 l/m 0 min 0 min 0 W/m 6,4 km/h (2 Bft) 31,03 %
02.02.2022 21:32 7,8 C 7,2 C 4,4 C 95 % 1021,8 hPa 0,0 l/m 0 min 0 min 0 W/m 6,4 km/h (2 Bft) 94,92 %
02.02.2022 21:34 7,9 C 7,2 C 4,4 C 95 % 1021,8 hPa 0,0 l/m 0 min 0 min 0 W/m 6,4 km/h (2 Bft) 97,83 %
02.02.2022 21:36 7,9 C 7,2 C 4,4 C 95 % 1021,8 hPa 0,0 l/m 0 min 0 min 0 W/m 6,4 km/h (2 Bft) 97,14 %
02.02.2022 21:38 7,9 C 7,2 C 4,4 C 95 % 1021,8 hPa 0,0 l/m 0 min 0 min 0 W/m 6,4 km/h (2 Bft) 97,87 %
02.02.2022 21:40 7,9 C 7,2 C 4,4 C 95 % 1021,9 hPa 0,0 l/m 0 min 0 min 0 W/m 3,2 km/h (1 Bft) 97,87 %
02.02.2022 21:42 7,9 C 7,2 C 4,4 C 95 % 1021,9 hPa 0,0 l/m 0 min 0 min 0 W/m 6,4 km/h (2 Bft) 96,61 %
02.02.2022 21:44 7,9 C 7,2 C 4,4 C 95 % 1021,8 hPa 0,0 l/m 0 min 0 min 0 W/m 6,4 km/h (2 Bft) 97,14 %
02.02.2022 21:46 7,9 C 7,2 C 4,4 C 95 % 1021,8 hPa 0,0 l/m 0 min 0 min 0 W/m 9,7 km/h (2 Bft) 96,55 %
02.02.2022 21:48 7,9 C 7,2 C 4,4 C 95 % 1021,8 hPa 0,0 l/m 0 min 0 min 0 W/m 9,7 km/h (2 Bft) 97,87 %
02.02.2022 21:50 7,9 C 7,2 C 4,4 C 95 % 1021,8 hPa 0,0 l/m 0 min 0 min 0 W/m 6,4 km/h (2 Bft) 94,29 %
02.02.2022 21:52 7,9 C 7,2 C 4,4 C 95 % 1021,9 hPa 0,0 l/m 0 min 0 min 0 W/m 6,4 km/h (2 Bft) 97,87 %
02.02.2022 21:54 7,9 C 7,2 C 4,4 C 95 % 1021,9 hPa 0,0 l/m 0 min 0 min 0 W/m 6,4 km/h (2 Bft) 97,87 %
02.02.2022 21:56 7,9 C 7,2 C 4,4 C 95 % 1022,0 hPa 0,0 l/m 0 min 0 min 0 W/m 9,7 km/h (2 Bft) 98,31 %
02.02.2022 21:58 7,9 C 7,2 C 4,4 C 95 % 1022,0 hPa 0,0 l/m 0 min 0 min 0 W/m 6,4 km/h (2 Bft) 97,14 %
02.02.2022 22:00 8,0 C 7,2 C 4,4 C 95 % 1022,0 hPa 0,0 l/m 0 min 0 min 0 W/m 6,4 km/h (2 Bft) 98,28 %
02.02.2022 22:02 8,0 C 7,2 C 4,4 C 95 % 1022,0 hPa 0,0 l/m 0 min 0 min 0 W/m 12,9 km/h (3 Bft) 94,29 %
02.02.2022 22:04 8,0 C 7,2 C 4,4 C 95 % 1022,0 hPa 0,0 l/m 0 min 0 min 0 W/m 6,4 km/h (2 Bft) 95,74 %
02.02.2022 22:06 8,0 C 7,2 C 4,4 C 95 % 1021,9 hPa 0,0 l/m 0 min 0 min 0 W/m 3,2 km/h (1 Bft) 93,22 %
02.02.2022 22:08 8,0 C 7,2 C 4,4 C 95 % 1022,0 hPa 0,0 l/m 0 min 0 min 0 W/m 6,4 km/h (2 Bft) 95,65 %
02.02.2022 22:10 8,0 C 7,2 C 4,4 C 95 % 1022,0 hPa 0,0 l/m 0 min 0 min 0 W/m 9,7 km/h (2 Bft) 100,00 %
02.02.2022 22:12 8,0 C 7,2 C 4,4 C 95 % 1022,0 hPa 0,0 l/m 0 min 0 min 0 W/m 9,7 km/h (2 Bft) 97,83 %
02.02.2022 22:14 8,0 C 7,2 C 4,4 C 96 % 1022,0 hPa 0,0 l/m 0 min 0 min 0 W/m 9,7 km/h (2 Bft) 94,92 %
02.02.2022 22:16 8,1 C 7,2 C 4,4 C 96 % 1022,0 hPa 0,0 l/m 0 min 0 min 0 W/m 12,9 km/h (3 Bft) 95,74 %
02.02.2022 22:18 8,1 C 7,2 C 4,4 C 96 % 1022,0 hPa 0,0 l/m 0 min 0 min 0 W/m 6,4 km/h (2 Bft) 97,14 %
02.02.2022 22:20 8,1 C 7,2 C 4,4 C 96 % 1022,0 hPa 0,0 l/m 0 min 0 min 0 W/m 6,4 km/h (2 Bft) 98,28 %
02.02.2022 22:22 8,1 C 7,2 C 4,4 C 96 % 1022,0 hPa 0,0 l/m 0 min 0 min 0 W/m 12,9 km/h (3 Bft) 94,44 %
02.02.2022 22:24 8,1 C 7,2 C 4,4 C 96 % 1022,0 hPa 0,0 l/m 0 min 0 min 0 W/m 9,7 km/h (2 Bft) 95,65 %
02.02.2022 22:26 8,1 C 7,2 C 4,4 C 96 % 1022,0 hPa 0,0 l/m 0 min 0 min 0 W/m 6,4 km/h (2 Bft) 98,31 %
02.02.2022 22:28 8,1 C 7,2 C 4,4 C 96 % 1022,0 hPa 0,0 l/m 0 min 0 min 0 W/m 9,7 km/h (2 Bft) 94,29 %
02.02.2022 22:30 8,1 C 7,2 C 4,4 C 96 % 1022,0 hPa 0,0 l/m 0 min 0 min 0 W/m 6,4 km/h (2 Bft) 97,87 %
02.02.2022 22:32 8,1 C 7,2 C 4,4 C 96 % 1021,9 hPa 0,0 l/m 0 min 0 min 0 W/m 6,4 km/h (2 Bft) 95,74 %
02.02.2022 22:34 8,1 C 7,2 C 4,4 C 96 % 1022,0 hPa 0,0 l/m 0 min 0 min 0 W/m 6,4 km/h (2 Bft) 95,74 %
02.02.2022 22:36 8,1 C 7,2 C 4,4 C 96 % 1021,9 hPa 0,0 l/m 0 min 0 min 0 W/m 6,4 km/h (2 Bft) 95,65 %
02.02.2022 22:38 8,1 C 7,2 C 4,4 C 96 % 1022,0 hPa 0,0 l/m 0 min 0 min 0 W/m 6,4 km/h (2 Bft) 93,62 %
02.02.2022 22:40 8,1 C 7,2 C 4,4 C 96 % 1022,0 hPa 0,0 l/m 0 min 0 min 0 W/m 6,4 km/h (2 Bft) 95,74 %
02.02.2022 22:42 8,1 C 7,2 C 4,4 C 96 % 1021,9 hPa 0,0 l/m 0 min 0 min 0 W/m 9,7 km/h (2 Bft) 95,74 %
02.02.2022 22:44 8,1 C 7,2 C 4,4 C 96 % 1021,9 hPa 0,0 l/m 0 min 0 min 0 W/m 6,4 km/h (2 Bft) 95,74 %
02.02.2022 22:46 8,1 C 7,2 C 4,4 C 96 % 1021,9 hPa 0,0 l/m 0 min 0 min 0 W/m 12,9 km/h (3 Bft) 97,83 %
02.02.2022 22:48 8,1 C 7,2 C 4,4 C 96 % 1021,9 hPa 0,0 l/m 0 min 0 min 0 W/m 9,7 km/h (2 Bft) 97,87 %
02.02.2022 22:50 8,1 C 7,2 C 4,4 C 96 % 1022,0 hPa 0,0 l/m 0 min 0 min 0 W/m 12,9 km/h (3 Bft) 97,87 %
02.02.2022 22:52 8,1 C 7,2 C 4,4 C 96 % 1022,0 hPa 0,0 l/m 0 min 0 min 0 W/m 12,9 km/h (3 Bft) 97,87 %
02.02.2022 22:54 8,1 C 7,2 C 4,4 C 96 % 1022,0 hPa 0,0 l/m 0 min 0 min 0 W/m 9,7 km/h (2 Bft) 93,62 %
02.02.2022 22:56 8,1 C 7,2 C 4,4 C 96 % 1022,0 hPa 0,0 l/m 0 min 0 min 0 W/m 12,9 km/h (3 Bft) 97,87 %
02.02.2022 22:58 8,1 C 7,2 C 4,4 C 97 % 1021,9 hPa 0,0 l/m 0 min 0 min 0 W/m 6,4 km/h (2 Bft) 95,65 %
02.02.2022 23:00 8,1 C 7,2 C 4,4 C 97 % 1021,9 hPa 0,0 l/m 0 min 0 min 0 W/m 6,4 km/h (2 Bft) 97,87 %
02.02.2022 23:02 8,1 C 7,2 C 4,4 C 97 % 1022,0 hPa 0,0 l/m 0 min 0 min 0 W/m 6,4 km/h (2 Bft) 100,00 %
02.02.2022 23:04 8,2 C 7,2 C 4,4 C 97 % 1022,0 hPa 0,0 l/m 0 min 0 min 0 W/m 6,4 km/h (2 Bft) 100,00 %
02.02.2022 23:06 8,2 C 7,2 C 4,4 C 97 % 1022,0 hPa 0,0 l/m 0 min 0 min 0 W/m 6,4 km/h (2 Bft) 100,00 %
02.02.2022 23:08 8,2 C 7,2 C 4,4 C 97 % 1022,0 hPa 0,0 l/m 0 min 0 min 0 W/m 6,4 km/h (2 Bft) 100,00 %
02.02.2022 23:10 8,2 C 7,2 C 4,4 C 97 % 1022,0 hPa 0,0 l/m 0 min 0 min 0 W/m 6,4 km/h (2 Bft) 100,00 %
02.02.2022 23:12 8,1 C 7,2 C 4,4 C 97 % 1022,1 hPa 0,0 l/m 0 min 0 min 0 W/m 9,7 km/h (2 Bft) 100,00 %
02.02.2022 23:14 8,1 C 7,2 C 4,4 C 97 % 1022,0 hPa 0,0 l/m 0 min 0 min 0 W/m 9,7 km/h (2 Bft) 100,00 %
02.02.2022 23:16 8,1 C 7,2 C 4,4 C 97 % 1022,0 hPa 0,0 l/m 0 min 0 min 0 W/m 6,4 km/h (2 Bft) 100,00 %
02.02.2022 23:18 8,2 C 7,2 C 4,4 C 97 % 1022,0 hPa 0,0 l/m 0 min 0 min 0 W/m 6,4 km/h (2 Bft) 100,00 %
02.02.2022 23:20 8,1 C 7,2 C 4,4 C 97 % 1022,1 hPa 0,0 l/m 0 min 0 min 0 W/m 3,2 km/h (1 Bft) 100,00 %
02.02.2022 23:22 8,1 C 7,2 C 4,4 C 97 % 1022,0 hPa 0,0 l/m 0 min 0 min 0 W/m 6,4 km/h (2 Bft) 100,00 %
02.02.2022 23:24 8,1 C 7,2 C 4,4 C 97 % 1022,0 hPa 0,0 l/m 0 min 0 min 0 W/m 6,4 km/h (2 Bft) 97,87 %
02.02.2022 23:26 8,1 C 7,2 C 4,4 C 97 % 1022,0 hPa 0,0 l/m 0 min 0 min 0 W/m 3,2 km/h (1 Bft) 100,00 %
02.02.2022 23:28 8,1 C 7,2 C 4,4 C 97 % 1022,0 hPa 0,0 l/m 0 min 0 min 0 W/m 3,2 km/h (1 Bft) 100,00 %
02.02.2022 23:30 8,1 C 7,2 C 4,4 C 97 % 1021,9 hPa 0,0 l/m 0 min 0 min 0 W/m 9,7 km/h (2 Bft) 100,00 %
02.02.2022 23:32 8,1 C 7,2 C 4,4 C 97 % 1021,9 hPa 0,0 l/m 0 min 0 min 0 W/m 6,4 km/h (2 Bft) 100,00 %
02.02.2022 23:34 8,1 C 7,2 C 4,4 C 97 % 1021,9 hPa 0,0 l/m 0 min 0 min 0 W/m 9,7 km/h (2 Bft) 100,00 %
02.02.2022 23:36 8,2 C 7,2 C 4,4 C 97 % 1021,9 hPa 0,0 l/m 0 min 0 min 0 W/m 9,7 km/h (2 Bft) 98,11 %
02.02.2022 23:38 8,2 C 7,2 C 4,4 C 97 % 1021,9 hPa 0,0 l/m 0 min 0 min 0 W/m 6,4 km/h (2 Bft) 100,00 %
02.02.2022 23:40 8,2 C 7,2 C 4,4 C 97 % 1021,9 hPa 0,0 l/m 0 min 0 min 0 W/m 6,4 km/h (2 Bft) 100,00 %
02.02.2022 23:42 8,2 C 7,2 C 4,4 C 97 % 1021,8 hPa 0,0 l/m 0 min 0 min 0 W/m 9,7 km/h (2 Bft) 97,56 %
02.02.2022 23:44 8,2 C 7,2 C 4,4 C 97 % 1021,8 hPa 0,0 l/m 0 min 0 min 0 W/m 6,4 km/h (2 Bft) 100,00 %
02.02.2022 23:46 8,2 C 7,2 C 4,4 C 97 % 1021,9 hPa 0,0 l/m 0 min 0 min 0 W/m 0,0 km/h (0 Bft) 100,00 %
02.02.2022 23:48 8,2 C 7,2 C 4,4 C 97 % 1021,9 hPa 0,0 l/m 0 min 0 min 0 W/m 0,0 km/h (0 Bft) 100,00 %
02.02.2022 23:50 8,2 C 7,2 C 4,4 C 98 % 1021,9 hPa 0,0 l/m 0 min 0 min 0 W/m 6,4 km/h (2 Bft) 100,00 %
02.02.2022 23:52 8,2 C 7,2 C 4,4 C 98 % 1021,9 hPa 0,0 l/m 0 min 0 min 0 W/m 3,2 km/h (1 Bft) 100,00 %
02.02.2022 23:54 8,2 C 7,2 C 4,4 C 98 % 1021,9 hPa 0,0 l/m 0 min 0 min 0 W/m 9,7 km/h (2 Bft) 100,00 %
02.02.2022 23:56 8,2 C 7,2 C 4,4 C 98 % 1021,9 hPa 0,0 l/m 0 min 0 min 0 W/m 12,9 km/h (3 Bft) 100,00 %
02.02.2022 23:58 8,2 C 7,2 C 4,4 C 98 % 1021,9 hPa 0,0 l/m 0 min 0 min 0 W/m 9,7 km/h (2 Bft) 100,00 %
_ Min-Zeit 19:12 18:46 18:42 14:38 00:00 - - - - 18:00 21:30
Minimum _ 6,7 C 5,0 C 1,7 C 77 % 1014,6 hPa - - - - 0,0 km/h (0 Bft) 31,03 %
_ Max-Zeit 14:30 14:04 14:04 23:50 20:18 00:00 12:08 00:00 14:04 03:32 00:18
Maximum _ 10,4 C 13,9 C 6,7 C 98 % 1022,1 hPa 0,0 l/m 4 min 0 min 454 W/m 51,5 km/h
SO (7 Bft)
100,00 %
Durchschnitt _ 8,0 C 7,6 C 4,4 C 89 % 1019,2 hPa #0,0 l/m #3:00 h #0 min. 126 W/m 13,1 km/h (3 Bft) 97,39 %
© 2022 W. Hausmann